[{"header": {"dx": 0.06612293990616946, "dy": 0.0552356325346848, "nx": 98, "ny": 59, "la1": 35.046912555036876, "la2": 31.78801023549047, "lo1": -121.43107172385933, "lo2": -114.95102361305473, "refTime": "2026040816", "parameterCategory": 1, "parameterNumber": 2}, "data": [4.63, 4.42, 4.0, 3.37, 2.75, 2.77, 2.8, 2.82, 2.84, 2.86, 2.58, 2.21, 2.84, 1.8, 0.0, -2.6, -4.58, -4.87, -6.28, -7.07, -8.22, -8.6, -7.55, -7.15, -6.26, -5.81, -5.36, -4.85, -4.82, -4.38, -3.9, -3.39, -2.21, 0.0, 0.0, 1.98, 3.16, 3.58, 3.58, 3.6, 4.38, 5.73, 7.63, 8.54, 9.66, 11.28, 13.51, 13.49, 12.84, 9.56, 4.74, 3.35, 3.13, 3.39, 3.35, 4.4, 5.09, 6.02, 6.2, 6.65, 6.71, 6.26, 4.92, 4.47, 4.92, 5.75, 7.1, 8.0, 8.8, 9.7, 9.35, 8.49, 8.05, 8.05, 8.05, 8.05, 8.49, 7.12, 6.45, 4.82, 3.58, 3.13, 2.68, 1.79, 0.89, 0.89, -0.0, 2.24, 3.13, 4.15, 4.98, 3.48, 2.98, 2.24, -0.0, -0.99, -2.53, -3.47, 4.63, 4.63, 3.97, 3.35, 3.37, 2.75, 2.77, 3.22, 3.04, 2.84, 2.6, 2.76, 2.68, 2.68, 1.27, -1.19, -2.64, -4.14, -5.31, -6.01, -8.37, -8.93, -8.6, -8.05, -6.71, -5.81, -5.36, -4.82, -4.98, -4.6, -4.57, -4.0, -2.98, -2.4, 0.0, 1.9, 3.16, 3.93, 4.19, 4.19, 4.89, 6.28, 8.15, 8.85, 10.75, 12.09, 13.12, 12.72, 10.24, 5.15, 3.39, 3.58, 4.02, 3.6, 3.83, 4.6, 5.94, 6.51, 6.94, 7.11, 7.1, 6.26, 5.36, 5.36, 5.81, 6.2, 7.11, 8.01, 8.9, 10.14, 10.14, 9.35, 8.49, 8.05, 8.05, 8.49, 8.94, 7.12, 6.45, 4.82, 3.58, 3.13, 2.68, 1.79, 0.89, 0.89, -0.0, 2.24, 3.13, 4.15, 4.98, 3.48, 2.98, 2.24, -0.0, -0.99, -2.53, -3.47, 4.63, 4.63, 3.97, 4.0, 3.35, 3.6, 3.4, 3.21, 3.45, 2.8, 2.61, 1.58, 2.76, 2.53, 2.3, 0.88, -0.89, -3.55, -4.5, -6.3, -6.64, -8.15, -8.73, -8.54, -7.63, -6.26, -5.36, -4.38, -4.22, -4.89, -5.15, -4.43, -4.29, -3.6, 0.0, 2.53, 4.0, 5.21, 5.37, 6.01, 6.14, 7.63, 9.39, 10.47, 11.14, 11.53, 12.13, 8.95, 3.48, 0.89, 2.24, 2.97, 3.6, 3.58, 4.22, 5.09, 6.02, 6.94, 7.42, 7.55, 7.55, 6.65, 6.2, 6.2, 6.2, 6.94, 7.42, 8.33, 9.24, 10.14, 10.6, 10.28, 9.36, 8.8, 8.14, 8.14, 9.24, 8.0, 5.34, 3.58, 1.98, 2.21, 1.2, 0.0, -0.8, 0.0, 0.89, 2.24, 3.9, 5.2, 5.82, 4.89, 3.93, 3.13, 1.4, -0.0, -0.0, -2.4, 4.63, 4.63, 4.63, 3.97, 4.0, 3.56, 3.6, 3.42, 3.42, 2.77, 2.8, 2.18, 1.84, 1.6, 1.84, 1.6, 0.0, -0.89, -3.27, -4.96, -5.89, -7.56, -8.49, -9.67, -9.42, -8.6, -5.75, -4.38, -2.84, -3.35, -4.03, -4.96, -5.1, -4.29, 0.0, 1.7, 4.74, 6.32, 7.18, 7.9, 9.66, 10.6, 10.48, 9.79, 9.67, 9.54, 8.05, 2.8, -1.79, -0.0, 1.0, 2.21, 2.84, 3.58, 4.6, 5.09, 6.02, 6.94, 7.85, 8.01, 7.55, 7.1, 6.65, 6.51, 6.7, 7.21, 7.63, 8.19, 8.91, 9.83, 10.45, 10.28, 8.8, 7.28, 6.7, 7.44, 8.0, 7.42, 4.6, 1.08, 0.0, 0.0, 0.0, -1.13, -1.13, 0.0, 1.58, 3.39, 4.6, 5.82, 5.82, 4.89, 3.93, 3.58, 2.98, 2.98, 2.4, 0.89, 5.06, 4.63, 4.63, 4.16, 3.97, 4.0, 4.03, 3.83, 3.4, 3.2, 2.96, 2.8, 2.8, 1.98, 0.83, 0.89, 0.74, 0.0, -1.75, -4.0, -5.98, -7.27, -8.37, -9.3, -9.05, -9.1, -7.6, -5.01, -2.98, -0.88, -1.55, -3.36, -5.51, -4.87, -1.18, 1.28, 2.49, 6.94, 8.86, 10.35, 10.48, 10.21, 8.72, 8.76, 8.85, 9.0, 6.73, 3.35, 1.79, 1.0, 1.4, 1.98, 2.84, 3.16, 3.93, 5.09, 6.02, 6.94, 7.85, 8.45, 7.6, 7.1, 6.45, 6.7, 7.12, 7.63, 7.63, 7.63, 8.0, 8.63, 9.49, 9.06, 6.26, 4.11, 3.33, 3.9, 5.82, 5.6, 2.53, 0.0, -0.81, -0.96, -0.88, -1.83, -1.83, 0.0, 0.98, 3.79, 5.15, 5.49, 5.21, 4.22, 4.0, 3.58, 3.39, 3.9, 4.02, 2.68, 5.06, 4.63, 4.63, 4.4, 4.63, 3.97, 4.0, 3.81, 4.05, 3.4, 3.4, 2.77, 3.72, 2.99, 2.8, 1.73, 0.84, 0.0, 0.0, -2.35, -5.35, -7.24, -8.54, -9.42, -8.22, -7.27, -6.98, -3.7, -2.33, -1.4, 0.0, 0.0, -0.82, -2.37, -0.74, 0.0, 1.61, 6.52, 9.67, 9.66, 7.2, 6.0, 6.42, 9.05, 10.55, 10.95, 9.75, 7.63, 5.75, 4.02, 2.97, 2.98, 2.84, 2.84, 3.58, 4.98, 5.51, 6.45, 7.85, 8.45, 8.0, 6.65, 6.16, 6.7, 7.63, 7.76, 7.21, 6.16, 6.21, 7.42, 8.0, 7.82, 5.82, 2.68, 0.0, 0.0, 2.0, 2.53, 1.4, 0.0, 0.0, -0.89, -1.72, -1.63, -0.89, 0.0, 0.89, 2.76, 2.95, 3.16, 3.35, 3.39, 2.68, 2.24, 3.13, 4.47, 4.82, 3.39, 5.06, 4.63, 4.4, 4.6, 4.6, 4.63, 4.42, 4.0, 4.03, 3.37, 3.37, 2.96, 4.29, 4.54, 5.01, 4.01, 2.51, 1.84, 0.77, 0.0, -3.02, -5.67, -7.82, -7.67, -6.8, -5.5, -4.66, -3.36, -3.6, -3.51, -1.26, 0.83, 2.51, 2.44, 0.73, 0.0, 0.79, 4.74, 7.95, 5.67, 4.74, 2.45, 3.6, 6.94, 10.59, 10.66, 10.63, 9.6, 7.76, 6.58, 4.92, 3.47, 3.6, 3.58, 4.22, 4.98, 5.59, 6.65, 7.55, 8.45, 8.0, 6.51, 6.51, 6.94, 6.7, 7.21, 7.21, 6.02, 5.51, 6.51, 7.42, 7.12, 6.4, 5.51, 1.58, -1.4, 0.0, 0.0, 0.0, 0.88, 0.0, 0.0, 0.0, -0.81, 0.0, 0.72, 0.0, 0.0, -0.0, -0.0, 1.26, 2.0, -0.0, 1.34, 2.4, 4.15, 4.57, 3.35, 5.06, 5.06, 4.4, 4.6, 4.6, 4.6, 4.63, 4.66, 4.0, 3.8, 3.35, 2.73, 2.82, 4.19, 5.75, 5.09, 5.43, 4.26, 2.23, 1.67, 0.0, -1.54, -3.32, -4.71, -4.87, -4.52, -4.47, -5.78, -7.06, -6.67, -3.92, 0.0, 2.39, 4.8, 3.76, 1.46, 0.76, 2.31, 4.88, 3.68, 3.41, 3.36, 3.42, 4.6, 5.67, 6.0, 7.36, 8.38, 8.43, 7.2, 4.57, 4.02, 4.38, 4.98, 5.2, 6.02, 6.51, 7.11, 7.6, 8.05, 7.55, 6.71, 6.71, 6.2, 5.59, 6.51, 7.42, 6.71, 5.81, 6.26, 7.15, 7.55, 7.6, 7.6, 5.81, 2.68, 1.79, 2.24, 2.98, 2.0, 1.47, 1.55, 0.76, 0.0, 0.73, 0.7, 0.0, -2.84, -2.0, -0.0, -0.0, -0.0, 1.34, 0.0, 2.21, 4.0, 4.4, 2.98, 5.29, 5.06, 4.6, 4.6, 4.57, 5.02, 5.04, 4.63, 4.42, 3.97, 3.32, 2.83, 2.39, 1.68, 3.63, 4.68, 5.24, 5.1, 4.0, 2.57, 1.2, 1.2, 0.0, -0.89, -1.83, -1.3, -3.52, -7.95, -9.91, -7.13, -2.4, 0.0, 1.17, 3.36, 2.45, 1.64, 1.18, 1.25, 1.7, 1.2, 2.32, 4.66, 4.66, 3.47, 2.58, 1.68, 2.28, 4.54, 5.64, 5.69, 5.01, 4.02, 4.38, 5.51, 6.02, 6.94, 7.55, 7.55, 8.05, 8.05, 7.6, 7.15, 6.26, 5.36, 4.92, 5.75, 8.05, 8.05, 6.26, 5.81, 7.15, 8.05, 9.24, 8.82, 7.6, 6.65, 5.75, 6.2, 6.26, 3.74, 0.0, 1.6, 2.2, 2.26, 2.23, 2.23, 0.76, -2.21, -2.21, -0.0, -0.0, -0.0, 0.89, 1.58, 2.21, 2.98, 2.53, 1.9, 5.29, 5.06, 5.29, 4.6, 4.57, 5.23, 5.26, 5.04, 4.63, 4.63, 3.94, 4.6, 3.8, 1.69, 1.7, 2.6, 3.51, 3.51, 3.39, 2.23, 1.09, 1.16, 1.2, 0.0, 2.24, 1.79, -2.98, -6.98, -8.94, -4.52, 0.0, 0.0, 0.0, 0.0, 0.0, 0.0, 0.0, 1.34, -0.0, 2.68, 2.44, 4.1, 4.01, 2.0, 1.34, 1.98, 1.65, 1.68, 2.39, 2.67, 2.0, 3.39, 4.82, 5.75, 6.51, 6.94, 7.55, 7.6, 8.05, 8.01, 8.0, 6.94, 6.58, 4.38, 4.02, 5.81, 8.49, 8.49, 7.15, 7.1, 7.85, 9.11, 9.62, 9.28, 8.49, 8.05, 7.55, 7.55, 7.6, 7.11, 2.41, 0.0, 2.4, 3.72, 4.74, 5.72, 6.07, 4.02, 2.0, 1.26, 1.0, 1.26, 2.24, 2.97, 3.39, 2.4, 1.79, 1.34, 5.29, 5.29, 5.04, 5.04, 5.02, 5.23, 5.23, 5.26, 5.04, 4.6, 4.6, 5.02, 5.7, 4.45, 3.51, 1.63, 2.6, 2.73, 2.58, 2.14, 1.68, 0.89, 0.0, 0.0, -0.0, 1.79, -1.41, -1.55, -2.8, -2.46, 0.0, -1.08, -1.9, -0.0, 1.2, 0.0, -2.0, -2.0, -0.0, 0.98, 2.21, 2.39, 2.35, 2.21, 1.6, 1.58, 0.87, 0.83, 0.0, -0.82, 0.0, 2.4, 4.47, 5.29, 5.81, 6.26, 6.65, 7.42, 7.63, 8.06, 7.35, 6.4, 4.8, 3.9, 4.02, 6.26, 8.01, 8.94, 8.33, 7.35, 8.0, 8.67, 9.4, 8.82, 8.46, 8.82, 8.19, 7.63, 8.14, 8.3, 5.43, 0.79, 0.0, 3.07, 4.84, 6.79, 8.46, 8.49, 6.26, 4.47, 3.13, 2.68, 3.13, 4.02, 4.38, 3.13, 1.79, -0.0, 5.29, 5.29, 5.04, 5.26, 5.02, 5.23, 5.2, 5.67, 5.23, 5.26, 5.02, 5.67, 6.33, 6.97, 5.69, 3.84, 3.22, 3.47, 4.45, 4.43, 4.37, 3.73, 1.9, 2.24, -0.0, 1.79, -2.68, -1.2, -0.0, -0.0, -2.68, -1.98, -1.99, -1.83, -0.87, -1.58, -2.4, -0.99, -0.0, -0.0, -1.79, 0.0, 0.79, 3.16, 3.13, 0.89, -2.0, -1.52, -2.8, -2.6, -0.96, 0.0, 2.8, 3.47, 3.9, 4.15, 5.51, 5.82, 6.11, 6.39, 6.79, 5.49, 2.68, 2.4, 3.58, 6.02, 8.14, 8.94, 7.35, 6.44, 6.7, 7.6, 7.47, 7.63, 8.14, 9.06, 8.82, 8.0, 7.92, 7.92, 6.82, 4.19, 2.2, 2.0, 3.84, 6.28, 8.19, 9.11, 8.38, 6.98, 5.16, 3.95, 3.13, 4.47, 5.09, 4.82, 2.8, 1.2, 5.29, 5.7, 5.69, 5.69, 5.02, 5.0, 5.64, 5.64, 5.89, 5.67, 5.67, 5.67, 6.33, 7.32, 7.81, 7.23, 6.28, 5.89, 6.28, 6.8, 7.81, 7.58, 6.04, 3.99, 0.89, -1.7, -3.2, -2.79, -2.53, -1.95, -2.68, -1.98, -2.68, -3.16, -1.98, -0.99, -1.0, -0.0, -0.0, -1.58, -3.39, -2.47, 0.0, 2.47, 2.98, 0.0, -2.49, -3.8, -2.69, -2.54, -1.45, -0.82, 0.0, 0.88, 1.55, 2.0, 3.16, 4.4, 2.95, 2.6, 3.72, 2.6, 0.0, 0.0, 2.24, 4.34, 5.75, 5.51, 3.39, 2.0, 3.35, 4.54, 4.6, 5.2, 6.16, 7.35, 7.42, 7.44, 7.33, 7.69, 6.08, 5.82, 4.74, 2.8, 2.95, 5.58, 7.42, 7.6, 7.98, 7.76, 6.36, 4.8, 3.74, 4.82, 6.02, 5.75, 4.38, 2.98, 5.7, 5.7, 5.69, 5.92, 5.67, 5.64, 5.86, 5.86, 5.86, 5.89, 5.67, 5.67, 6.31, 7.33, 8.22, 8.65, 8.05, 8.0, 8.0, 8.51, 9.51, 10.0, 9.21, 6.84, 3.2, -0.89, -2.91, -3.2, -3.49, -3.88, -3.35, -3.93, -3.72, -2.53, -1.2, -0.0, -0.0, -0.0, -0.0, -1.26, -2.53, -1.63, 0.0, 2.23, 2.54, 1.3, 0.0, -1.18, -2.39, -2.49, -1.22, 0.0, 0.0, 0.0, 2.24, 1.34, 3.13, 2.24, -2.68, -2.0, 0.0, 0.0, 0.0, 0.0, 0.87, 1.9, 2.4, 0.76, -0.0, -1.58, -1.9, -2.68, -2.24, -1.34, 1.58, 3.35, 4.6, 4.43, 5.77, 5.77, 5.37, 6.01, 6.7, 4.74, 1.47, 3.63, 5.15, 5.15, 5.09, 6.54, 6.94, 6.07, 5.05, 5.2, 5.86, 6.2, 4.92, 4.47, 5.45, 5.69, 5.69, 5.92, 5.67, 5.64, 5.86, 5.62, 5.86, 6.29, 6.31, 6.31, 6.31, 6.97, 7.95, 8.5, 8.73, 9.1, 8.96, 8.96, 10.0, 10.5, 9.8, 9.01, 6.28, 1.58, -1.79, -3.09, -3.87, -4.6, -4.4, -3.72, -3.72, -2.21, -0.0, -0.0, -0.0, 1.34, 1.79, 1.34, 0.0, 0.0, 1.11, 1.04, 0.0, 0.0, 2.68, 2.68, 0.0, -1.23, -1.32, 0.0, -2.68, -1.8, -0.0, -0.0, 2.53, 0.89, -1.79, -2.53, -0.0, 0.0, 0.0, 0.0, 0.0, 0.0, 2.24, -0.0, 1.8, -0.0, -1.13, -3.47, -3.63, -3.93, -3.39, -2.24, 0.0, 1.4, 2.68, 3.79, 4.43, 5.06, 5.72, 6.0, 4.46, 2.53, 2.23, 1.98, 2.41, 5.2, 6.8, 6.32, 5.43, 5.46, 6.16, 5.51, 5.29, 5.29, 5.69, 5.69, 5.69, 6.33, 6.33, 5.64, 5.86, 5.62, 6.27, 6.29, 6.29, 6.31, 6.31, 6.7, 7.61, 8.53, 9.08, 9.3, 9.21, 9.63, 10.16, 10.68, 10.4, 9.71, 8.28, 4.84, 0.99, -0.89, -2.17, -3.39, -4.27, -4.0, -2.84, -1.27, -0.0, 0.76, 1.2, -0.0, -0.0, 1.79, 0.0, 0.98, 0.0, 0.0, 0.0, -0.0, -0.0, -0.0, -0.0, -0.0, 1.79, -0.0, -1.6, -0.0, -0.0, -0.0, -0.0, -0.0, -2.68, -0.0, -0.0, -0.0, 2.68, 2.68, 1.8, 1.8, 2.24, 4.0, 4.66, 1.8, -1.6, -2.26, -1.7, -2.84, -3.9, -4.02, -3.58, -2.4, 0.0, 0.0, 0.87, 2.95, 4.54, 5.75, 5.75, 5.29, 2.68, 2.24, 1.9, 4.0, 5.82, 4.65, 4.74, 6.07, 6.64, 6.0, 4.84, 4.84, 5.69, 5.69, 5.69, 6.33, 6.33, 6.31, 6.29, 6.27, 6.27, 6.53, 6.53, 6.7, 6.96, 6.96, 7.61, 8.25, 8.81, 9.08, 9.86, 9.76, 10.3, 11.08, 10.68, 9.88, 9.01, 7.81, 5.6, 2.97, 1.34, 0.0, -1.58, -2.86, -2.86, -2.8, -0.81, -0.0, -0.0, -0.0, -0.0, -0.0, 1.34, 0.0, 0.0, -0.96, 0.0, -0.0, -1.4, -1.4, -0.0, -0.0, -0.0, -0.0, -0.0, 2.24, -0.0, -0.0, -0.0, -0.0, -0.0, -0.0, -0.0, -0.0, 1.8, 1.8, 2.84, 2.98, 3.6, 4.02, 2.0, -0.0, -3.0, -2.68, -2.98, -2.97, -3.13, -2.97, -3.58, -3.47, -3.35, -3.35, -2.21, 0.0, 2.0, 4.19, 5.21, 5.2, 4.47, 3.13, 3.6, 5.21, 5.09, 3.9, 3.79, 5.69, 7.15, 5.43, 4.43, 4.43, 5.69, 5.69, 6.33, 6.33, 6.33, 6.31, 6.56, 6.27, 6.27, 6.27, 6.94, 6.94, 6.96, 6.96, 7.61, 8.24, 9.13, 9.66, 9.59, 10.3, 10.68, 11.2, 10.68, 9.71, 9.86, 9.57, 8.48, 7.26, 6.04, 4.11, 1.34, -1.0, -2.44, -2.84, -2.2, -2.8, -2.53, -2.0, -0.0, -0.0, -0.0, 1.79, 0.0, -1.8, -1.9, -2.68, -1.9, -1.9, -2.21, -2.21, -2.21, -1.9, 2.24, 1.79, 2.24, 2.24, 1.9, 2.21, 2.53, 1.6, 2.21, 2.21, 2.53, 2.21, 1.6, 0.99, 2.4, 3.58, 2.53, -0.0, -4.4, -4.02, -3.58, -3.13, -1.9, -0.0, -0.0, 1.34, -2.24, -3.13, -3.9, -3.13, -1.0, 3.35, 3.91, 4.43, 5.06, 4.57, 4.54, 4.43, 3.63, 2.8, 3.09, 5.13, 5.89, 4.95, 3.9, 3.9, 5.69, 5.69, 6.33, 6.33, 6.33, 6.97, 6.7, 6.94, 6.27, 6.27, 6.94, 6.94, 6.94, 6.96, 6.96, 8.95, 8.53, 9.13, 9.86, 10.16, 11.82, 12.21, 11.08, 10.87, 9.6, 10.21, 6.8, 9.03, 8.05, 4.84, 2.53, -0.0, -1.13, -2.22, -2.86, -2.86, -2.84, -1.9, -1.2, -0.0, -0.0, -0.0, -0.0, -1.9, -3.13, -3.13, -2.68, -1.9, -2.21, -2.21, -2.68, -2.24, 2.24, 1.79, 2.24, 2.24, 2.24, 2.68, 2.68, 2.68, 1.9, 2.21, 2.21, 1.58, -0.0, 1.0, 2.68, 3.58, 3.13, 2.21, 2.68, 1.79, 2.24, 2.0, 1.2, 1.4, 2.98, 2.98, 1.2, -1.13, -3.58, -2.97, -1.0, 0.79, 2.47, 4.26, 5.21, 5.94, 5.24, 4.01, 2.76, 2.8, 3.45, 3.7, 4.71, 4.03, 3.4, 3.4, 5.69, 5.69, 6.33, 6.33, 6.71, 6.97, 6.97, 6.96, 6.94, 6.68, 6.68, 6.94, 6.94, 7.6, 7.6, 7.61, 7.95, 7.93, 8.76, 9.27, 11.88, 11.75, 11.5, 10.63, 8.6, 7.97, 7.35, 5.37, 5.69, 4.74, 2.23, 0.0, -0.65, -1.6, -2.23, -2.51, -2.53, -1.9, -1.58, -1.26, -1.26, -0.99, -1.0, -1.2, -1.26, -2.68, -2.68, -2.21, -2.21, -2.21, -1.9, -0.0, -0.0, -0.0, -0.0, -0.0, 1.79, 0.89, 1.34, 2.24, 2.24, 2.24, -0.0, -0.0, -0.0, -0.0, 2.24, 3.58, 4.92, 5.73, 6.51, 8.8, 10.25, 9.83, 8.05, 5.75, 4.82, 4.02, -0.0, -2.0, -3.58, -3.82, -2.68, -1.58, 0.98, 2.4, 3.11, 4.01, 5.0, 4.01, 2.99, 2.8, 2.54, 2.35, 2.9, 3.45, 3.27, 3.27, 5.69, 5.69, 6.33, 6.33, 6.97, 6.97, 6.97, 6.96, 6.96, 6.94, 6.92, 7.19, 7.59, 7.33, 7.59, 7.96, 7.95, 7.61, 6.97, 8.18, 9.4, 9.59, 10.23, 9.66, 8.45, 7.17, 5.65, 4.45, 3.84, 2.22, 0.0, 0.0, -0.57, -0.65, -1.61, -1.61, -2.21, -1.9, -1.58, -1.26, -1.26, -1.26, -1.24, -1.24, -1.26, -1.9, -1.9, -2.21, -2.21, -2.21, -2.21, -0.0, -0.0, -0.0, -0.0, -0.0, 0.89, 1.34, 1.79, 1.79, 1.79, 1.34, 2.24, -0.0, -0.0, -0.0, 1.26, 2.8, 4.15, 5.75, 7.76, 10.14, 11.18, 10.25, 8.56, 6.8, 5.09, 3.6, -0.0, -1.8, -3.35, -3.9, -3.58, -2.68, -2.24, 0.0, 0.0, 2.53, 4.84, 5.46, 5.77, 4.58, 2.64, 1.4, 2.23, 2.12, 2.06, 2.06, 5.69, 5.69, 6.33, 6.33, 6.97, 6.97, 6.97, 7.61, 7.33, 6.94, 6.92, 6.92, 7.59, 7.59, 7.96, 8.24, 7.96, 8.24, 8.58, 7.96, 7.93, 8.19, 8.45, 9.02, 8.78, 8.38, 7.9, 5.59, 3.48, 0.54, 0.45, 0.0, -0.0, -0.0, -0.65, -1.2, -1.61, -1.9, -1.24, -1.26, -0.6, -1.26, -1.26, -0.99, -1.26, -0.63, -1.9, -2.21, -1.6, -1.4, -2.21, -0.0, -0.0, -0.0, -0.0, 2.24, 1.34, -1.58, -1.9, 0.0, 0.0, 1.34, -1.79, -1.79, -0.0, -0.0, -0.0, 1.58, 2.8, 3.48, 5.6, 6.58, 2.68, 0.89, 3.35, 5.37, 5.69, 4.46, 2.24, -0.0, -2.23, -3.39, -4.02, -4.02, -3.39, -2.21, 0.0, 0.88, 4.74, 7.32, 7.31, 6.01, 2.98, 0.81, 0.78, 1.55, 1.73, 1.73, 5.69, 5.69, 6.08, 6.33, 6.97, 6.97, 7.33, 7.61, 7.61, 7.6, 7.59, 6.92, 7.59, 7.59, 7.59, 8.24, 8.58, 8.58, 9.19, 9.48, 9.08, 8.94, 8.65, 8.29, 8.38, 8.73, 9.21, 7.9, 5.21, 1.58, 0.0, 0.0, -0.0, -0.0, -0.0, -0.54, -1.0, -1.24, -0.99, -0.8, -0.6, -0.6, -1.26, -1.24, -1.24, -1.26, -2.21, -2.53, -1.6, -1.6, -1.4, -0.0, -0.0, -0.0, -0.0, 2.68, 1.79, 0.0, 0.0, -1.2, 0.0, 0.0, 1.34, 1.34, 1.34, -0.0, 1.34, 1.79, 2.24, 2.68, 4.02, 2.68, -3.6, -2.68, 0.0, 2.2, 4.65, 4.43, 2.54, -0.0, -0.0, -2.23, -3.39, -4.02, -3.6, -2.23, 0.0, 0.89, 4.42, 5.24, 7.59, 6.28, 4.43, 1.74, 0.87, 1.6, 1.63, 1.63, 5.69, 5.69, 6.08, 6.33, 6.97, 6.97, 7.61, 7.61, 7.61, 7.6, 7.33, 7.33, 7.33, 7.33, 7.6, 8.24, 8.58, 8.87, 9.19, 9.77, 10.01, 10.41, 10.16, 9.1, 8.29, 8.38, 8.94, 8.65, 6.44, 3.43, 1.2, 0.89, 0.45, 0.32, -0.0, -0.0, -0.57, -0.57, -0.57, -0.8, -0.6, -0.6, -1.26, -1.24, -1.9, -1.9, -3.6, -2.84, -1.8, -1.8, -1.6, -0.0, -0.0, -0.0, -0.0, 2.68, 2.68, 2.68, 0.0, 0.0, 0.0, 0.0, 1.34, 1.34, 1.34, 1.34, 1.34, 2.24, 2.24, 3.13, 3.58, -4.0, -3.58, -2.68, -2.68, 0.0, 2.73, 2.6, 2.53, -0.0, -0.0, -0.79, -2.41, -2.97, -3.39, -2.0, 0.0, 0.82, 0.96, 0.0, 4.26, 3.69, 3.22, 2.53, 2.53, 2.53, 2.29, 2.29, 5.69, 5.69, 6.08, 6.33, 6.71, 6.97, 7.61, 7.61, 7.95, 8.24, 7.6, 7.6, 7.33, 7.33, 7.6, 8.24, 8.58, 8.87, 9.17, 9.48, 10.06, 10.8, 11.34, 10.83, 9.63, 8.84, 8.65, 8.38, 7.44, 5.01, 2.79, 1.7, 1.34, 0.89, 0.89, -0.0, -0.0, -0.0, -0.0, -0.0, -0.0, -0.6, -0.6, -1.58, -2.15, -2.5, -2.68, -2.15, -2.15, -1.9, -1.2, -1.6, -0.0, -0.0, -0.0, 2.24, 2.21, 2.4, 3.13, 2.68, 0.0, -1.0, -1.58, 1.34, 1.34, 1.34, 1.34, 1.79, 1.58, 3.58, 4.02, 2.24, -3.58, -3.39, -3.13, -2.68, 0.0, 1.98, 2.84, 1.79, -0.0, -0.0, -0.87, -0.76, -2.8, -2.98, -2.23, -0.98, -1.98, -2.86, -3.93, 0.0, 2.4, 3.79, 3.49, 3.48, 2.53, 2.53, 5.69, 5.69, 6.08, 6.33, 6.71, 6.97, 6.97, 7.61, 8.24, 8.24, 8.24, 7.6, 7.6, 7.59, 7.96, 8.24, 8.58, 8.87, 9.17, 9.17, 10.06, 10.65, 11.16, 11.5, 11.22, 10.16, 9.1, 8.08, 6.87, 5.32, 3.73, 2.5, 2.0, 1.7, 1.34, 0.89, -0.0, -0.0, -0.0, -0.0, -0.0, -0.0, -0.63, -0.95, -1.86, -2.4, -2.15, -2.15, -2.15, -2.5, -1.88, -1.88, -1.27, -0.0, -0.0, -0.0, -0.0, -0.0, 2.21, 2.53, 2.24, -2.21, -1.58, 1.34, 0.89, 1.34, 1.79, 1.79, 1.9, 2.97, 3.9, 4.47, 0.0, -2.4, -3.9, -4.47, -2.68, 0.0, 1.98, 2.4, 1.79, -0.0, 0.76, -0.0, -0.85, -3.58, -3.47, -3.39, -3.35, -3.83, -3.48, 0.0, 2.4, 4.01, 4.43, 4.11, 2.3, 2.3, 5.69, 5.69, 6.34, 6.61, 6.71, 6.71, 6.97, 7.61, 8.24, 8.24, 8.24, 8.24, 7.96, 7.59, 8.23, 8.23, 8.58, 8.87, 9.17, 9.46, 9.72, 10.3, 11.16, 11.62, 11.5, 11.22, 9.76, 8.55, 6.52, 5.06, 3.79, 3.16, 3.09, 3.6, 2.91, 2.17, 1.34, 0.89, 0.45, 0.45, -0.0, -0.0, 0.45, -0.63, -1.2, -1.49, -1.58, -1.9, -1.9, -2.5, -2.21, -2.23, -1.84, -1.13, -0.87, -0.99, -0.0, -0.0, 2.21, 2.98, 3.13, 0.0, 0.0, 1.34, 1.34, 1.34, 1.79, 2.24, 2.4, 2.98, 4.0, 4.57, 3.47, 1.79, -2.24, -4.38, -4.38, -1.26, 1.2, 2.21, 2.0, 1.79, 1.9, 1.6, -0.0, -2.54, -3.9, -3.35, -2.84, -3.35, -2.6, -1.74, 1.84, 3.55, 3.79, 3.64, 2.98, 2.98, 5.69, 5.69, 6.34, 6.61, 6.98, 6.71, 6.97, 7.61, 7.61, 8.24, 8.24, 8.24, 8.24, 8.24, 8.23, 8.23, 8.87, 8.58, 9.17, 9.46, 9.72, 9.72, 10.23, 11.07, 11.07, 11.5, 10.83, 9.76, 7.44, 4.74, 3.49, 3.48, 3.43, 3.64, 3.35, 2.68, 2.0, 1.7, 1.34, 0.89, 0.45, 0.45, 0.45, 0.0, 0.45, -0.89, -1.26, -1.9, -1.61, -1.88, -2.21, -2.23, -2.23, -2.48, -1.8, -0.98, -0.0, -0.0, 1.2, 2.98, 2.97, 1.79, 1.34, -1.79, 0.89, 1.79, 2.0, 2.68, 2.68, 3.39, 4.34, 5.09, 5.09, 3.9, -0.0, -2.95, -3.93, -3.13, 0.0, 0.99, 2.21, 1.6, 1.7, 1.49, -0.0, -1.0, -2.24, -2.98, -2.8, -1.79, -1.2, -2.24, 0.0, 1.63, 2.9, 3.2, 3.33, 3.33, 5.95, 5.95, 6.34, 6.34, 6.98, 6.71, 6.97, 7.61, 7.61, 8.24, 8.24, 7.95, 8.24, 7.96, 7.96, 8.23, 8.59, 8.87, 8.87, 9.17, 9.72, 9.72, 10.23, 10.51, 10.8, 10.8, 10.7, 9.86, 8.08, 5.06, 3.49, 2.86, 3.48, 3.73, 3.64, 3.35, 2.68, 2.4, 1.7, 1.2, 0.89, 0.89, 0.45, 0.89, 1.34, 0.45, -1.2, -1.61, -1.88, -1.88, -1.61, -2.23, -2.51, -2.86, -2.86, -1.8, -1.41, -0.0, 0.99, 2.53, 2.4, -0.0, -0.0, -2.24, 1.34, 1.58, 2.4, 2.4, 2.4, 3.13, 3.9, 5.09, 6.45, 5.6, 3.39, -1.2, -3.58, -3.58, -2.21, 0.0, 1.13, 1.24, 1.34, -0.0, -0.87, -0.87, -0.85, -2.4, -2.4, -0.99, -0.0, -1.2, -1.74, 0.0, 1.49, 2.18, 2.9, 2.9, 5.95, 5.95, 6.34, 6.34, 6.98, 6.98, 6.97, 7.61, 7.61, 8.24, 8.24, 8.24, 7.95, 8.24, 7.96, 8.23, 8.23, 8.59, 8.87, 9.17, 9.17, 9.72, 9.72, 10.01, 10.23, 10.23, 10.51, 10.23, 8.65, 5.37, 3.22, 2.86, 3.48, 3.73, 3.73, 3.43, 3.35, 2.68, 2.4, 1.86, 1.7, 1.34, 0.89, 0.89, 0.0, 1.34, 1.79, -1.2, -1.2, -1.88, -1.61, -1.84, -2.51, -2.86, -3.48, -2.86, -2.23, -1.13, -0.0, -0.0, -0.0, -1.58, -1.58, -1.26, 1.34, 1.79, 1.58, 1.6, 0.99, 2.53, 3.58, 4.6, 6.02, 6.7, 6.21, 3.9, -0.0, -2.98, -2.97, -0.98, 0.0, 0.0, 0.0, -2.12, -2.79, -3.48, -3.48, -3.83, -3.2, -1.58, -0.0, -0.0, -1.9, -0.95, 0.0, 1.44, 2.31, 2.31, 5.95, 5.95, 6.34, 6.34, 6.98, 6.98, 6.97, 7.33, 7.61, 8.24, 8.24, 8.24, 7.95, 7.95, 8.24, 8.24, 8.23, 8.23, 8.58, 8.58, 9.17, 9.17, 9.72, 10.01, 10.01, 10.23, 10.23, 9.59, 8.65, 5.95, 3.83, 2.86, 3.16, 4.07, 4.07, 3.73, 3.43, 3.35, 2.68, 2.4, 2.0, 1.7, 1.34, 1.34, 0.63, 0.89, -1.26, -1.24, -1.2, -1.2, -1.61, -1.84, -2.23, -2.58, -2.86, -3.48, -3.48, -3.15, -2.48, -2.68, -3.35, -2.97, -1.58, 0.89, 1.79, 2.24, 2.68, 2.53, 2.0, 2.98, 2.95, 3.48, 4.82, 6.2, 6.7, 5.21, 2.68, -0.85, -2.4, -2.23, -0.88, -0.79, -1.24, -2.68, -3.82, -4.11, -4.11, -4.66, -3.74, -2.6, -0.0, -0.0, 0.0, -1.47, -0.69, 0.0, 0.73, 0.73, 5.95, 5.95, 6.34, 6.34, 6.98, 6.98, 6.97, 7.33, 7.61, 7.95, 8.24, 8.24, 7.95, 7.95, 8.24, 8.24, 8.24, 8.24, 8.58, 8.58, 8.58, 9.17, 9.46, 9.72, 10.01, 10.01, 9.66, 9.37, 9.62, 6.28, 4.45, 3.49, 3.2, 3.79, 3.79, 3.79, 3.73, 3.43, 3.35, 3.07, 2.5, 2.0, 1.7, 1.34, 0.89, -0.0, -0.6, -0.99, -1.24, -1.2, -1.88, -1.61, -1.84, -2.23, -2.51, -3.43, -4.0, -4.0, -4.0, -3.35, -3.6, -2.4, 1.34, 0.89, 1.79, 2.68, 3.13, 4.02, 3.6, 1.8, 1.98, 2.53, 4.0, 5.81, 4.38, 1.4, -1.79, -2.21, -2.21, -2.54, -2.41, -1.66, -1.6, -2.23, -3.13, -3.98, -4.3, -3.82, -4.0, -2.86, -1.74, -0.0, -0.0, -1.49, -1.4, -0.73, 0.0, 0.0, 5.95, 5.95, 6.34, 6.34, 6.98, 6.98, 6.97, 7.33, 7.61, 7.95, 8.24, 7.95, 7.95, 7.95, 8.24, 8.56, 8.58, 8.58, 8.24, 8.24, 8.58, 8.87, 9.17, 9.46, 9.66, 10.01, 9.66, 9.08, 8.15, 7.9, 3.85, 3.49, 3.49, 3.79, 4.11, 4.11, 3.79, 3.73, 3.43, 3.35, 3.07, 2.5, 2.0, 1.7, 0.89, -0.0, -0.6, -0.8, -1.24, -1.2, -1.61, -1.88, -1.88, -2.23, -2.23, -2.23, -3.14, -3.88, -3.88, -3.2, -2.4, -1.79, 1.34, 1.34, 1.79, 2.24, 2.68, 3.13, 4.47, 3.58, 1.79, 1.58, 3.35, 4.57, 2.68, -3.13, -3.9, -2.97, -1.58, -1.34, -1.9, -1.6, -0.87, -0.99, -1.58, -2.68, -3.07, -2.91, -3.35, -3.16, -2.0, -0.87, -0.0, -0.8, -3.11, -1.65, -1.49, -1.49, 5.95, 5.95, 6.34, 6.34, 6.98, 6.98, 7.26, 7.33, 7.61, 7.95, 7.95, 7.95, 7.95, 7.95, 8.56, 8.56, 8.56, 8.87, 8.28, 7.96, 7.96, 8.87, 9.17, 9.13, 9.39, 9.72, 9.42, 9.08, 7.9, 6.34, 3.85, 2.61, 2.84, 3.83, 4.37, 4.37, 4.11, 4.07, 3.73, 3.43, 3.35, 3.07, 2.5, 1.86, 1.2, 0.45, 0.45, -0.6, -0.99, -1.24, -1.61, -1.88, -1.88, -2.21, -2.53, -2.53, -2.53, -2.79, -3.35, -3.07, -2.21, 2.24, 1.79, 1.79, 1.34, 1.34, 1.79, 2.0, 3.58, 3.2, 2.24, 3.13, 4.46, 5.58, 3.35, -2.24, -2.97, -2.0, 0.89, 0.89, 0.0, 0.0, 0.0, 0.76, 0.0, 0.0, -1.34, -1.6, -2.98, -2.84, -2.0, -2.0, -0.0, -0.0, -1.66, -3.09, -2.18, -2.18, 5.95, 5.95, 6.34, 6.34, 6.98, 6.98, 6.98, 7.33, 7.61, 7.95, 7.95, 7.95, 7.95, 7.95, 7.95, 8.56, 8.56, 8.87, 8.87, 7.96, 7.96, 8.56, 8.56, 9.13, 9.46, 9.72, 9.13, 8.82, 7.9, 6.64, 4.45, 2.84, 2.61, 3.49, 4.43, 4.43, 4.37, 3.79, 4.07, 3.73, 3.43, 3.35, 3.07, 2.5, 1.86, 0.95, 0.0, -0.63, -1.26, -1.24, -1.49, -1.61, -1.88, -2.21, -2.21, -2.53, -2.53, -2.53, -2.79, -2.21, -1.24, -0.0, 1.79, 1.79, 1.79, 1.79, 1.26, 1.58, 2.4, 2.68, 2.24, 2.53, 4.84, 6.21, 6.16, 3.47, 2.24, 1.79, 1.34, 1.2, 0.99, 0.76, 0.87, 0.87, 1.49, 1.58, 0.95, 1.34, -1.2, -1.98, -1.8, -2.0, -0.98, -0.0, 0.0, -2.2, -2.99, -2.99, 5.95, 5.95, 6.34, 6.34, 6.98, 6.98, 6.98, 7.61, 7.33, 7.95, 7.95, 7.95, 7.95, 7.95, 7.95, 8.24, 8.56, 8.87, 8.58, 8.24, 7.96, 8.24, 8.56, 8.85, 9.17, 9.46, 9.46, 8.82, 7.9, 6.95, 5.08, 3.22, 2.86, 3.22, 4.43, 4.43, 4.71, 4.37, 3.79, 4.07, 3.48, 3.43, 2.79, 2.79, 2.5, 1.58, 0.63, 0.45, -0.95, -1.26, -1.24, -1.9, -1.9, -2.15, -2.5, -2.21, -2.53, -2.53, -2.53, -2.21, -1.9, -0.8, -0.0, -0.0, -0.0, 1.79, 1.79, 2.24, 2.24, 2.68, 3.58, 2.97, 5.09, 6.45, 7.21, 6.94, 5.73, 4.47, 2.4, 0.85, 0.0, 0.79, 0.87, 1.6, 1.74, 1.9, 2.4, 1.34, -0.0, -1.2, -1.13, -1.8, -0.98, -0.0, 0.95, -0.87, -3.8, -3.8, 5.95, 5.95, 6.34, 6.34, 6.61, 6.98, 6.98, 7.61, 7.61, 7.95, 7.95, 7.95, 7.95, 7.95, 7.95, 8.24, 8.56, 8.87, 8.58, 8.24, 7.96, 7.96, 8.56, 8.56, 9.17, 9.17, 9.13, 8.53, 7.9, 6.67, 5.1, 3.84, 3.49, 3.79, 4.43, 4.43, 4.68, 4.71, 4.37, 3.79, 3.79, 3.16, 2.84, 3.93, 2.21, 2.21, 1.58, 0.0, 0.45, -1.2, -1.26, -1.58, -1.9, -1.9, -2.15, -2.5, -2.21, -2.53, -2.53, -2.21, -1.9, -1.26, -0.0, -0.0, -0.0, 1.79, 1.79, 1.79, 1.79, 2.24, 2.68, 2.68, 4.47, 6.71, 7.37, 6.8, 6.21, 5.2, 2.21, 0.0, -0.87, 0.0, 0.7, 0.87, 0.99, 1.9, 1.26, 1.34, -0.0, -0.0, -0.99, -1.8, -1.8, -0.99, -0.0, 0.0, -2.2, -2.9, 5.7, 5.7, 6.34, 6.34, 6.61, 6.98, 6.98, 7.61, 7.61, 7.61, 7.95, 7.95, 7.95, 7.95, 7.95, 8.24, 8.24, 8.87, 8.58, 8.24, 7.96, 8.24, 8.24, 8.56, 8.56, 9.17, 8.85, 8.53, 7.9, 6.35, 5.38, 4.47, 4.12, 4.11, 4.43, 5.01, 5.01, 5.01, 4.68, 4.37, 3.79, 3.2, 2.86, 2.95, 2.21, 2.79, 2.23, 1.24, 0.0, -0.89, -0.95, -1.26, -1.86, -1.86, -2.15, -2.15, -2.21, -2.21, -2.53, -2.53, -1.61, -1.24, -0.0, -0.0, -0.0, 1.79, 1.79, 1.34, 1.34, 1.79, 2.24, 3.13, 3.6, 5.29, 6.65, 5.82, 5.06, 4.29, 2.41, -1.0, -2.6, -0.87, 0.0, 0.76, 1.0, 1.26, 1.79, 1.79, 1.34, 1.34, -1.58, -1.98, -1.8, -1.98, -1.58, -1.34, -1.49, -2.2, 5.7, 5.7, 6.34, 6.34, 6.34, 6.98, 6.98, 6.98, 7.61, 7.61, 7.61, 8.24, 7.95, 7.95, 7.95, 8.24, 8.24, 8.56, 8.58, 8.24, 7.96, 8.24, 7.95, 8.24, 8.56, 8.56, 8.56, 8.53, 7.6, 6.35, 5.1, 4.75, 4.45, 4.74, 5.01, 5.01, 5.59, 5.59, 5.35, 5.01, 3.83, 3.49, 3.49, 2.23, 2.95, 2.51, 2.48, 1.84, 0.57, 0.45, -0.63, -1.6, -1.26, -1.86, -2.23, -2.15, -2.5, -2.53, -2.23, -2.23, -1.88, -1.24, -0.95, 2.24, 2.24, -0.0, -0.0, -0.0, 1.34, 1.79, 2.24, 2.4, 4.0, 4.66, 5.36, 3.6, 2.53, 3.47, 2.76, 0.0, -1.58, -1.0, 0.0, 0.0, 0.95, 1.79, 1.6, 2.0, 1.79, 0.89, 1.34, -2.4, -2.98, -2.21, -2.0, -1.79, -1.26, -1.49, 5.7, 5.7, 5.95, 6.34, 6.34, 6.98, 6.98, 6.98, 7.61, 7.61, 7.61, 8.24, 7.95, 7.95, 7.95, 8.24, 8.24, 8.24, 8.87, 7.96, 7.96, 8.24, 8.24, 7.95, 8.24, 8.24, 8.56, 8.24, 7.6, 6.35, 5.1, 4.47, 4.47, 5.06, 5.32, 5.65, 5.65, 5.65, 5.65, 5.06, 4.74, 4.12, 3.49, 3.22, 2.22, 2.4, 1.11, 1.11, 0.53, 0.0, -0.45, -1.2, -1.2, -1.7, -1.86, -1.9, -1.9, -1.88, -2.23, -2.23, -2.23, -1.2, -2.21, -0.0, -0.0, 2.24, -0.0, -0.0, 1.79, 1.79, 2.0, 2.21, 3.16, 4.0, 4.02, 3.13, 0.0, 0.0, 0.96, 0.0, 0.0, 0.89, 1.34, 2.24, 2.68, 3.13, 3.39, 2.97, 2.4, 1.58, 0.0, -1.79, -2.68, -2.4, -2.24, -1.26, -1.26, -1.26, 5.7, 5.7, 5.95, 6.34, 6.34, 6.98, 6.98, 6.98, 7.32, 7.61, 7.61, 8.24, 8.24, 7.95, 7.95, 8.24, 8.24, 7.96, 8.24, 8.23, 8.24, 7.96, 7.96, 8.24, 7.95, 8.24, 8.24, 8.24, 7.32, 6.35, 5.1, 4.73, 5.08, 5.08, 5.69, 6.23, 6.23, 6.28, 5.95, 5.98, 5.06, 4.45, 3.84, 4.12, 3.49, 1.61, 0.54, 0.0, 0.0, 0.0, 0.45, -0.89, -1.34, -1.2, -1.7, -1.86, -1.9, -1.88, -2.53, -2.23, -2.23, -1.88, -1.24, -0.0, 2.24, 1.79, 1.79, 1.79, 1.79, 2.24, 2.4, 1.98, 3.48, 3.35, 4.0, 2.68, -2.68, -3.35, -1.8, -0.99, 0.0, 1.79, 3.13, 3.58, 4.02, 4.82, 4.38, 3.9, 3.39, 2.6, 1.2, 0.0, -1.58, -2.68, -1.26, 0.0, 0.0, 0.0, 5.7, 5.7, 5.95, 6.34, 6.34, 6.7, 6.98, 6.98, 7.32, 7.61, 7.61, 7.61, 8.24, 7.95, 7.95, 8.24, 8.24, 7.96, 7.96, 8.23, 8.24, 8.24, 8.24, 8.24, 7.95, 8.24, 7.93, 7.61, 6.7, 6.08, 5.36, 4.83, 5.1, 5.41, 6.01, 6.28, 6.28, 6.87, 6.28, 5.95, 5.37, 4.75, 4.12, 3.84, 4.11, 3.43, 1.24, 0.0, 0.0, 0.0, 0.0, -0.45, -0.89, -1.34, -1.6, -1.49, -1.9, -1.61, -1.88, -2.53, -2.53, -2.21, -1.49, -0.0, -0.0, 1.79, 1.34, 1.34, 1.79, 1.79, 2.4, 2.53, 2.84, 3.48, 3.93, 2.97, -0.0, -2.68, -3.39, -1.58, 1.34, 3.13, 4.02, 4.47, 4.85, 4.66, 5.09, 4.57, 4.0, 3.6, 2.98, 1.2, 0.0, -1.0, 0.0, 0.0, 0.0, 0.0, 5.7, 5.7, 5.95, 6.34, 6.34, 6.34, 6.98, 6.98, 6.98, 7.32, 7.61, 7.61, 8.24, 7.95, 7.95, 8.24, 7.96, 8.24, 7.96, 8.23, 7.96, 8.24, 7.96, 7.96, 7.95, 7.95, 7.93, 7.6, 6.98, 5.72, 5.09, 5.1, 5.1, 5.71, 6.32, 6.59, 6.59, 6.59, 6.62, 6.28, 5.69, 5.06, 4.45, 3.84, 4.12, 3.79, 2.23, 1.2, 0.0, 0.0, 0.0, 0.0, -0.89, -0.89, -1.2, -1.26, -1.24, -1.49, -1.61, -1.88, -2.53, -2.21, -1.9, -0.57, -0.0, 1.79, 1.79, 1.34, 1.79, 1.79, 2.68, 2.4, 3.35, 4.22, 4.98, 4.47, 4.38, 3.47, 2.68, 2.21, 3.48, 4.8, 4.85, 4.38, 4.15, 3.74, 3.95, 4.47, 4.47, 3.58, 2.68, 0.0, 0.0, 0.0, 0.0, 0.0, 0.0, 0.0, 5.7, 5.7, 5.95, 6.34, 6.34, 6.34, 6.7, 6.98, 6.98, 7.32, 7.61, 7.61, 8.24, 7.95, 8.24, 8.24, 7.96, 7.96, 7.85, 7.57, 7.96, 8.24, 7.96, 7.96, 7.95, 7.95, 7.93, 7.32, 6.98, 6.08, 5.72, 5.45, 5.45, 5.72, 6.34, 6.92, 7.25, 6.92, 6.59, 6.28, 5.69, 5.08, 4.75, 4.12, 3.84, 3.83, 2.86, 1.84, 0.65, 0.0, 0.0, 0.0, 0.0, -0.89, -0.89, -1.26, -1.26, -1.24, -1.49, -1.61, -2.21, -2.21, -1.9, -1.24, -0.0, 1.79, 1.79, 1.79, 1.79, 2.24, 1.79, 1.79, 2.68, 3.9, 4.02, 3.9, 4.38, 5.29, 5.51, 5.21, 5.82, 6.21, 4.47, 1.9, 1.0, 0.89, 1.26, 1.58, 1.58, -0.0, 1.34, 0.0, 0.0, 0.0, 0.0, 0.0, 0.0, 0.0, 5.7, 5.7, 5.7, 5.95, 6.34, 6.34, 6.34, 6.98, 6.98, 7.32, 7.61, 7.61, 8.24, 7.95, 8.24, 8.24, 7.96, 7.59, 7.57, 7.57, 7.96, 8.24, 8.24, 7.96, 7.95, 7.95, 7.61, 7.61, 6.7, 6.35, 5.72, 5.72, 5.72, 5.72, 6.34, 6.95, 7.23, 7.23, 6.92, 6.32, 6.28, 5.69, 5.08, 4.75, 4.12, 4.12, 3.22, 2.86, 1.61, 0.54, 0.0, 0.0, 0.0, -0.63, -0.63, -0.95, -0.6, -1.26, -1.24, -1.9, -1.88, -2.5, -1.9, -1.26, -0.0, 1.79, 1.79, 2.24, 2.24, 1.79, 1.58, 1.58, 2.24, 2.24, 2.68, 2.68, 3.58, 4.92, 5.09, 4.98, 5.21, 6.16, 4.02, 0.0, -2.68, -2.84, -1.6, -0.0, -1.2, -2.4, -1.79, 0.0, 0.0, 0.87, 0.87, 1.13, 1.13, 1.13, 5.7, 5.7, 5.7, 5.7, 6.34, 6.34, 6.34, 6.98, 6.98, 6.98, 7.61, 7.61, 7.95, 7.95, 8.24, 7.96, 7.59, 7.57, 7.57, 7.57, 7.57, 7.96, 7.96, 7.96, 8.24, 7.96, 7.61, 7.33, 6.98, 6.35, 6.08, 5.72, 5.72, 5.72, 6.35, 6.67, 7.55, 7.23, 6.95, 6.92, 6.32, 5.71, 5.08, 4.47, 4.12, 3.84, 3.49, 2.86, 2.23, 1.61, 0.54, 0.71, 0.0, 0.0, -0.89, -0.63, -0.95, -0.6, -1.26, -1.24, -1.9, -1.9, -1.9, -0.8, -0.0, 2.24, 1.79, 1.79, 2.24, 1.79, 2.24, 1.58, 1.79, 1.34, 1.34, 1.79, 2.68, 3.58, 4.0, 4.4, 4.82, 5.73, 4.02, 0.0, -3.58, -3.48, -1.66, -0.0, -2.24, -2.68, -2.68, -1.34, 0.0, 0.0, 0.0, 0.0, 0.0, 0.0, 5.7, 5.7, 5.7, 5.7, 6.34, 6.34, 6.34, 6.7, 6.98, 6.98, 7.61, 7.61, 7.61, 7.95, 8.24, 7.96, 7.59, 7.57, 7.57, 7.57, 7.57, 7.96, 8.24, 7.95, 7.61, 7.6, 7.33, 7.33, 6.98, 6.08, 6.35, 5.72, 5.72, 6.0, 6.35, 6.67, 7.55, 7.23, 6.95, 6.34, 6.32, 5.71, 5.1, 5.08, 4.47, 3.84, 3.49, 3.22, 2.6, 2.23, 1.16, 0.65, 0.57, 0.0, 0.45, 0.45, -0.0, -0.63, -0.6, -1.26, -1.58, -1.86, -1.86, -1.26, -0.0, -0.0, -0.0, 1.34, 1.79, 1.26, 2.24, 1.79, 1.26, 1.34, 0.89, 1.34, 1.79, 2.68, 2.97, 3.9, 4.02, 4.38, 3.9, 1.79, -2.24, -2.41, -0.79, -0.0, 0.89, -1.34, -2.24, -2.24, -1.34, 0.0, 0.0, 0.0, 0.0, 0.0, 5.29, 5.29, 5.7, 5.7, 5.95, 6.34, 6.34, 6.34, 6.98, 6.98, 7.61, 7.61, 7.61, 7.95, 7.96, 7.87, 7.57, 7.16, 7.16, 7.32, 7.57, 7.96, 7.96, 8.24, 7.95, 7.61, 7.61, 6.97, 6.34, 6.08, 5.98, 5.72, 5.72, 6.0, 6.35, 6.67, 6.97, 6.95, 6.95, 6.34, 6.04, 5.71, 5.71, 5.08, 4.47, 4.12, 3.47, 3.49, 2.86, 2.48, 1.8, 1.16, 0.65, 0.0, 0.45, 0.0, 0.45, -0.0, -0.0, -0.95, -1.26, -1.26, -1.58, -1.26, -0.0, -0.0, -0.0, 1.34, 1.34, 1.26, 1.58, 1.26, 1.79, -0.0, 1.79, 1.34, 1.34, 1.79, 2.68, 3.13, 3.58, 3.39, 3.39, 2.24, -1.79, -1.66, -0.79, -0.0, 0.95, 1.26, -0.95, -1.79, -1.79, 0.0, 0.0, 0.0, 0.0, 0.0, 5.29, 5.29, 5.7, 5.7, 5.95, 6.34, 6.34, 6.34, 6.98, 6.98, 7.26, 7.33, 7.61, 7.61, 7.6, 7.59, 7.57, 6.9, 7.16, 6.92, 7.59, 7.85, 8.24, 8.24, 7.95, 7.61, 7.33, 6.71, 6.34, 6.08, 5.98, 5.72, 5.72, 6.0, 6.35, 6.67, 6.97, 6.95, 6.95, 6.34, 6.34, 5.72, 5.71, 5.1, 4.75, 4.47, 3.85, 3.47, 3.49, 2.86, 2.22, 1.8, 1.16, 0.6, 0.45, 0.45, 0.45, 0.45, 0.45, -0.0, -0.95, -1.26, -1.26, -1.26, -0.6, -0.0, 1.58, 1.26, 1.34, 1.34, 0.0, 0.0, 0.0, 1.34, 1.58, 1.79, 1.34, 1.79, 2.24, 2.68, 3.13, 2.68, 2.4, 1.58, -2.6, -2.3, -1.66, -0.0, 1.26, 2.24, 0.0, -1.34, -2.24, -1.79, 0.0, 0.0, 0.0, 0.0, 5.04, 5.04, 5.04, 5.69, 5.95, 5.95, 6.34, 6.34, 6.61, 6.98, 6.98, 7.33, 7.61, 7.61, 7.6, 7.32, 6.9, 6.9, 7.16, 6.92, 7.59, 7.59, 8.23, 8.24, 7.96, 7.61, 7.33, 6.98, 6.34, 6.34, 6.35, 5.72, 5.72, 6.0, 6.35, 6.67, 6.97, 6.95, 6.95, 6.34, 6.34, 5.72, 5.72, 5.1, 5.1, 4.47, 4.1, 3.85, 3.47, 2.84, 2.86, 2.48, 1.84, 1.26, 0.95, 0.89, 0.89, 0.45, 0.45, 0.45, -0.0, -0.95, -1.26, -1.26, -0.6, -0.0, -0.0, 1.58, 2.0, 2.24, 1.79, 1.34, 0.0, 1.34, 1.79, 2.24, 2.24, 1.79, 2.24, 2.24, 2.24, 2.68, 2.68, -1.79, -2.97, -2.68, -1.66, -0.87, -0.0, 1.79, 0.0, -1.34, -2.24, -1.79, -1.2, -0.99, -0.99, -0.99, 5.04, 5.04, 5.26, 5.69, 5.69, 5.69, 6.34, 6.34, 6.61, 6.98, 6.71, 6.97, 7.33, 7.61, 7.33, 6.92, 6.9, 6.9, 7.16, 7.59, 7.59, 7.59, 7.96, 8.24, 8.24, 8.24, 7.33, 7.32, 6.7, 6.34, 6.35, 6.08, 6.08, 6.35, 6.35, 6.67, 6.97, 6.95, 6.95, 6.35, 6.06, 5.72, 5.72, 5.72, 5.1, 5.1, 4.47, 4.1, 3.85, 3.47, 2.84, 2.86, 1.88, 1.58, 1.26, 1.2, 0.95, 0.63, 0.45, 0.0, 0.45, -0.63, -0.95, -0.95, -0.6, -0.0, -0.0, 1.26, 2.97, 3.13, 2.4, 1.26, 1.34, 0.89, 1.34, 2.24, 2.68, 1.9, 1.9, 1.58, 2.24, 2.24, -0.0, -2.68, -3.13, -3.22, -2.53, -1.66, -0.0, -0.0, -1.34, -1.79, -2.24, -2.24, -1.2, -1.4, -1.4, -1.4, 5.04, 5.04, 5.26, 5.26, 5.69, 5.69, 5.69, 6.34, 6.61, 6.33, 6.71, 6.97, 6.97, 6.96, 6.94, 6.92, 6.9, 6.9, 7.57, 7.59, 7.59, 7.59, 7.59, 7.96, 7.96, 7.95, 7.61, 7.6, 6.98, 6.69, 6.69, 6.64, 6.35, 6.35, 6.35, 6.97, 6.97, 6.97, 6.67, 6.35, 6.06, 5.72, 5.45, 5.72, 5.1, 5.38, 4.73, 4.47, 4.1, 4.12, 3.49, 3.12, 2.23, 2.15, 1.86, 1.49, 1.6, 0.95, 0.63, 0.45, 0.45, -0.0, -0.95, -1.2, -0.6, -0.0, -0.0, 1.26, 2.8, 2.68, 2.68, 1.58, -0.0, 0.89, 1.34, 1.58, 2.4, 2.21, 1.4, 1.2, 1.58, 1.79, -1.0, -3.13, -3.13, -2.6, -2.68, -2.2, -1.8, -2.6, -2.68, -2.24, -2.24, -1.58, -1.2, -1.74, -1.74, -1.74, 4.6, 4.6, 5.26, 5.02, 5.67, 5.69, 5.69, 5.69, 6.33, 6.33, 6.33, 6.97, 6.97, 6.96, 7.22, 7.19, 6.92, 6.92, 7.32, 7.59, 7.59, 7.33, 7.6, 8.24, 8.24, 8.24, 8.22, 7.3, 7.59, 7.59, 6.97, 6.97, 6.67, 6.67, 6.67, 6.97, 7.27, 6.97, 6.97, 6.67, 6.35, 5.72, 5.72, 5.72, 5.1, 5.1, 5.1, 4.73, 4.75, 4.1, 3.84, 3.49, 2.84, 2.53, 2.15, 1.86, 1.58, 1.26, 0.95, 0.89, 0.0, 0.45, -0.63, -1.2, -1.26, -0.0, -0.0, 1.26, 2.12, 2.68, 2.68, 2.24, 1.79, 1.79, 1.79, 2.0, 2.8, 2.98, 2.21, 0.0, 0.0, -0.0, -1.13, -3.35, -3.13, -2.68, -2.6, -3.16, -3.16, -3.2, -3.13, -3.04, -2.24, -1.58, -2.21, -1.98, -1.98, -1.98, 4.63, 4.63, 4.6, 5.02, 5.23, 5.92, 5.69, 5.69, 6.33, 6.33, 6.33, 6.58, 6.96, 6.96, 7.22, 6.94, 6.94, 7.19, 7.19, 6.94, 6.94, 6.94, 7.6, 8.24, 7.95, 8.24, 7.93, 7.6, 7.6, 7.3, 7.59, 7.27, 6.97, 6.97, 7.27, 7.27, 7.27, 7.27, 6.97, 6.97, 6.35, 6.06, 5.72, 5.72, 5.1, 5.1, 5.1, 5.1, 4.75, 4.47, 4.12, 3.49, 3.16, 3.14, 2.21, 2.15, 1.58, 1.58, 0.6, 0.63, 0.45, 0.0, -0.63, -1.2, -1.26, -0.6, -0.0, 0.8, 1.6, 2.68, 2.24, 2.24, 2.24, 2.24, 1.26, 1.58, 2.4, 3.39, 2.21, 1.2, 0.0, -0.0, -1.13, -2.84, -3.39, -2.68, -2.68, -3.83, -3.84, -3.22, -3.13, -3.13, -2.54, -1.9, -2.21, -0.99, -0.99, -0.99, 4.63, 4.63, 4.6, 5.26, 5.02, 5.67, 5.92, 5.92, 5.92, 6.33, 6.31, 6.31, 6.96, 6.96, 7.22, 7.22, 7.22, 7.22, 6.94, 6.94, 6.94, 6.94, 7.6, 7.6, 7.61, 7.61, 7.61, 7.61, 7.32, 7.6, 7.3, 7.59, 6.97, 6.97, 7.27, 7.59, 7.86, 7.59, 7.27, 6.97, 6.35, 6.35, 5.72, 5.72, 5.1, 5.1, 5.1, 5.1, 5.08, 4.47, 4.45, 4.11, 3.48, 2.84, 2.79, 2.21, 1.9, 1.24, 1.26, 0.6, 0.0, 0.0, -0.45, -1.2, -1.6, -1.2, -0.0, 0.95, 1.6, 2.68, 2.68, 2.24, 2.68, 2.68, 1.79, 0.0, 1.0, 1.9, 2.97, 1.9, 1.58, 1.79, -0.0, -1.98, -3.35, -3.13, -3.13, -3.74, -3.84, -3.58, -2.6, -3.13, -2.97, -2.21, -1.74, -0.99, -0.99, -0.99, 4.4, 4.4, 4.6, 5.04, 5.26, 5.67, 5.92, 5.92, 5.92, 6.07, 6.31, 6.31, 6.96, 6.96, 7.22, 6.96, 6.96, 6.96, 6.29, 6.53, 6.94, 6.94, 7.6, 7.6, 7.61, 7.33, 6.97, 7.26, 6.98, 6.98, 6.98, 6.98, 6.97, 6.97, 6.97, 7.59, 7.86, 7.86, 7.59, 7.27, 6.67, 6.06, 5.72, 5.72, 5.1, 5.1, 5.1, 5.1, 5.08, 4.47, 4.75, 4.11, 3.79, 2.86, 2.84, 2.23, 1.88, 1.61, 1.24, 0.8, 0.63, 0.45, 0.45, -1.34, -1.6, -1.2, -0.0, -0.0, 1.34, 1.7, 2.12, 2.97, 2.4, 2.4, 2.68, 1.79, 0.0, 0.0, 2.0, 2.4, 2.4, 2.24, 1.34, -1.9, -3.39, -3.58, -3.58, -3.47, -4.22, -3.83, -3.2, -3.13, -3.04, -2.98, -2.21, -1.2, -1.2, -1.2, 4.6, 4.6, 4.6, 5.04, 5.26, 5.02, 5.67, 5.67, 5.67, 5.89, 6.31, 6.31, 6.56, 6.94, 6.94, 6.96, 6.96, 6.31, 6.29, 6.27, 6.92, 6.94, 7.22, 7.22, 6.96, 6.97, 6.97, 6.98, 6.98, 6.7, 6.98, 6.98, 6.69, 6.97, 6.97, 7.59, 7.59, 7.86, 7.59, 7.27, 6.95, 6.34, 6.34, 5.72, 5.72, 5.1, 5.1, 5.1, 4.75, 4.47, 4.45, 3.83, 3.49, 3.48, 2.86, 2.51, 2.23, 1.88, 1.49, 0.99, 0.6, 0.63, 0.45, -0.89, -1.34, -1.34, -0.89, 0.45, 0.89, 1.34, 1.79, 2.8, 2.4, 3.58, 3.13, 2.68, 1.79, 0.0, 1.58, 2.21, 1.9, 1.9, 1.79, -1.79, -3.13, -3.58, -3.13, -3.13, -3.95, -3.74, -3.95, -3.58, -3.58, -2.97, -1.9, 0.0, 0.0, 0.0, 4.6, 4.6, 4.6, 5.04, 5.26, 5.02, 5.67, 5.67, 5.89, 5.89, 6.31, 6.56, 6.29, 6.7, 6.94, 7.22, 6.96, 6.56, 6.53, 6.92, 6.92, 6.94, 6.94, 7.22, 6.96, 6.97, 6.97, 6.98, 6.98, 6.7, 6.98, 6.69, 6.69, 6.69, 6.97, 7.59, 7.59, 7.59, 7.59, 7.27, 6.95, 6.34, 6.34, 6.04, 6.01, 5.38, 5.1, 4.73, 4.75, 4.47, 3.84, 4.12, 3.78, 3.2, 2.86, 2.23, 2.23, 1.61, 1.61, 1.24, 1.26, 0.95, 0.0, -0.45, -1.34, -1.34, -0.89, 0.45, 0.45, 0.89, 1.34, 1.34, 1.79, 3.58, 3.13, 3.13, 1.79, 0.0, 1.2, 0.99, 1.98, 2.21, 1.58, 0.89, -2.24, -3.13, -3.13, -2.68, -3.13, -4.02, -4.02, -4.47, -3.95, -2.97, -1.0, 0.0, 0.0, 0.0, 4.6, 4.6, 4.6, 5.04, 5.26, 5.02, 5.67, 5.67, 5.89, 5.89, 6.31, 6.56, 6.29, 6.7, 6.94, 7.22, 6.96, 6.56, 6.53, 6.92, 6.92, 6.94, 6.94, 7.22, 6.96, 6.97, 6.97, 6.98, 6.98, 6.7, 6.98, 6.69, 6.69, 6.69, 6.97, 7.59, 7.59, 7.59, 7.59, 7.27, 6.95, 6.34, 6.34, 6.04, 6.01, 5.38, 5.1, 4.73, 4.75, 4.47, 3.84, 4.12, 3.78, 3.2, 2.86, 2.23, 2.23, 1.61, 1.61, 1.24, 1.26, 0.95, 0.0, -0.45, -1.34, -1.34, -0.89, 0.45, 0.45, 0.89, 1.34, 1.34, 1.79, 3.58, 3.13, 3.13, 0.0, 0.0, 1.2, 0.99, 1.98, 1.98, 2.21, 2.24, 1.34, -2.24, -2.68, -2.68, -2.68, -3.58, -4.02, -4.34, -4.34, -3.39, -1.2, 0.0, 0.0, 0.0]}, {"header": {"dx": 0.06612293990616946, "dy": 0.0552356325346848, "nx": 98, "ny": 59, "la1": 35.046912555036876, "la2": 31.78801023549047, "lo1": -121.43107172385933, "lo2": -114.95102361305473, "refTime": "2026040816", "parameterCategory": 1, "parameterNumber": 3}, "data": [-8.68, -8.28, -8.0, -7.31, -6.6, -6.1, -5.6, -5.08, -4.55, -4.0, -3.09, -2.21, -2.84, -3.6, -4.02, -5.2, -5.49, -5.84, -5.03, -4.71, -3.52, -2.46, -0.84, -0.0, -0.0, -0.0, -0.0, -0.81, -0.96, -0.88, -0.98, -1.13, -2.21, -2.68, -3.13, -2.98, -3.16, -2.68, -2.68, -1.8, -0.88, -0.96, -2.54, -4.88, -7.24, -8.05, -9.54, -10.32, -10.43, -8.76, -4.74, -2.23, 0.0, 1.13, 2.23, 2.2, 1.7, 1.72, 0.89, 0.83, 0.0, 0.0, 0.0, 0.0, 0.0, 0.82, 0.89, 0.89, 1.6, 1.62, 0.85, 0.0, 0.0, 0.0, 0.0, 0.0, 0.0, -0.71, -1.84, -0.96, 0.0, 0.0, 0.0, 0.0, 0.0, 0.0, 1.34, 0.0, 0.0, -1.66, -2.99, -3.48, -1.98, 0.0, 2.68, 2.97, 2.53, 0.87, -8.68, -8.68, -8.51, -7.81, -7.31, -6.6, -6.1, -5.37, -5.47, -4.55, -3.64, -4.6, -3.58, -3.58, -3.82, -4.77, -6.16, -6.9, -6.63, -6.01, -5.98, -5.1, -2.46, -0.0, -0.0, -0.0, -0.0, -0.96, -1.99, -2.76, -1.83, -2.0, -1.98, -1.2, -1.79, -1.9, -3.16, -2.95, -3.35, -3.35, -3.91, -5.03, -6.98, -8.85, -10.75, -11.29, -11.48, -11.92, -8.66, -4.29, -1.13, 0.0, 0.0, 1.8, 2.3, 2.76, 1.98, 1.63, 1.73, 0.79, 0.89, 0.0, 0.0, 0.0, 0.0, 0.89, 0.79, 0.8, 0.81, 1.69, 1.69, 0.85, 0.0, 0.0, 0.0, 0.0, 0.0, -0.71, -1.84, -0.96, 0.0, 0.0, 0.0, 0.0, 0.0, 0.0, 1.34, 0.0, 0.0, -1.66, -2.99, -3.48, -1.98, 0.0, 2.68, 2.97, 2.53, 0.87, -8.68, -8.68, -8.51, -8.0, -7.81, -7.2, -6.8, -5.89, -5.75, -5.6, -4.69, -3.7, -4.6, -4.22, -3.83, -4.38, -6.2, -6.21, -7.2, -7.56, -6.64, -6.98, -6.24, -4.88, -2.54, -0.0, -0.0, -0.88, -2.53, -3.91, -4.29, -4.43, -3.22, -1.8, -1.79, -2.53, -2.0, -3.47, -5.37, -6.01, -7.68, -9.92, -12.52, -14.5, -15.12, -14.82, -13.74, -10.58, -3.48, 0.0, 0.0, 0.99, 1.8, 2.68, 2.53, 1.7, 1.72, 1.73, 1.65, 0.84, 0.84, 0.83, 0.89, 0.89, 0.89, 1.73, 1.65, 1.67, 1.68, 1.69, 1.63, 0.0, -0.78, -1.6, -2.44, -2.44, -1.68, -0.89, -2.29, -2.68, -2.98, -2.21, -2.4, -2.24, -1.6, -1.34, 0.0, 0.0, -0.98, -2.6, -3.33, -3.91, -2.95, 0.0, 2.8, 3.13, 2.24, 1.2, -8.68, -8.68, -8.68, -8.51, -8.0, -7.71, -7.2, -6.28, -6.28, -6.1, -5.6, -4.9, -5.51, -5.59, -5.51, -5.59, -6.26, -7.1, -7.35, -7.44, -6.73, -6.3, -7.27, -6.45, -5.14, -2.46, -0.82, -0.88, -2.84, -4.19, -6.44, -7.44, -6.79, -5.72, -4.47, -5.09, -4.74, -6.32, -7.97, -10.28, -12.87, -15.5, -16.12, -15.5, -14.51, -13.51, -11.28, -5.6, -0.0, 2.24, 2.0, 2.21, 2.84, 2.68, 2.76, 1.7, 1.72, 1.73, 1.75, 0.8, 0.84, 0.89, 0.83, 1.63, 2.51, 2.4, 2.54, 2.23, 2.97, 3.02, 2.41, 0.0, -1.6, -4.37, -5.21, -4.96, -4.0, -1.65, -2.76, -4.34, -4.02, -3.58, -3.13, -3.39, -3.39, -2.68, -1.58, -1.13, -2.76, -4.16, -4.16, -3.91, -2.95, 0.0, 1.98, 1.98, 1.2, 0.0, -8.43, -8.68, -8.68, -8.91, -8.51, -8.0, -7.48, -6.56, -6.8, -6.4, -6.51, -5.6, -5.6, -5.94, -6.65, -7.1, -6.66, -7.15, -7.85, -8.0, -8.37, -7.27, -5.98, -6.97, -5.76, -5.69, -3.8, -3.76, -4.46, -5.29, -6.98, -9.24, -10.23, -10.55, -10.66, -10.2, -9.97, -10.41, -12.89, -15.13, -16.12, -14.13, -11.9, -9.56, -8.85, -7.36, -5.89, -2.23, 0.0, 2.0, 2.8, 2.98, 2.84, 3.16, 2.95, 1.7, 1.72, 1.73, 1.75, 0.85, 0.0, 0.89, 1.84, 2.51, 2.67, 2.54, 2.54, 2.54, 4.0, 4.71, 3.95, 2.47, 0.0, -4.11, -5.82, -5.46, -4.16, -2.8, -2.53, -4.02, -4.85, -4.82, -4.38, -4.57, -4.57, -4.47, -3.9, -3.79, -4.29, -4.58, -3.47, -2.53, -2.0, 0.0, 1.13, 0.98, 0.0, 0.0, -8.43, -8.68, -8.68, -8.8, -8.68, -8.51, -8.0, -7.08, -6.95, -6.8, -6.8, -6.1, -5.58, -4.98, -5.6, -6.94, -7.55, -8.05, -8.05, -8.63, -9.81, -9.66, -9.76, -8.24, -8.22, -8.49, -8.15, -8.63, -8.17, -8.38, -7.15, -8.05, -9.8, -11.84, -13.39, -13.41, -12.86, -12.23, -14.51, -16.1, -14.39, -11.99, -8.03, -5.76, -4.87, -3.91, -3.25, -2.54, -0.82, 0.0, 0.99, 1.98, 2.84, 2.84, 2.68, 1.99, 1.84, 1.84, 1.75, 0.85, 0.89, 0.83, 2.64, 2.51, 2.54, 3.45, 2.4, 2.64, 3.55, 4.12, 4.0, 4.34, 4.16, 0.0, -4.02, -4.47, -4.0, -2.53, -2.8, -4.02, -5.36, -6.2, -6.02, -6.51, -7.1, -7.6, -6.2, -4.6, -3.93, -3.16, -2.23, -1.13, 0.0, 0.0, 0.0, 0.0, -0.96, -1.13, -8.43, -8.68, -8.8, -9.2, -9.2, -8.68, -8.28, -8.0, -7.48, -7.31, -7.31, -6.51, -5.15, -3.63, -3.76, -4.81, -6.7, -8.29, -8.46, -8.49, -9.83, -12.15, -12.51, -13.64, -13.59, -13.2, -13.99, -13.44, -11.99, -9.66, -8.85, -6.65, -6.7, -8.14, -11.6, -13.86, -14.28, -13.02, -11.35, -12.15, -13.02, -12.27, -11.99, -10.41, -8.23, -6.56, -5.72, -4.8, -3.45, -1.32, 0.0, 0.87, 1.8, 2.68, 2.53, 1.99, 1.6, 0.83, 0.84, 0.85, 0.89, 1.63, 1.63, 1.73, 2.51, 2.4, 2.4, 1.72, 1.84, 1.63, 1.65, 2.67, 3.2, 1.84, -1.58, -2.8, -2.68, -2.68, -3.13, -4.38, -5.81, -7.15, -8.05, -8.9, -9.83, -9.36, -6.71, -1.79, 1.79, 1.79, 1.26, 1.0, 1.79, 0.0, -1.2, -1.66, -1.83, -2.23, -8.43, -8.43, -8.8, -9.2, -9.2, -9.2, -8.68, -8.15, -8.0, -7.6, -7.81, -7.09, -6.57, -5.24, -3.45, -3.64, -4.65, -6.82, -8.19, -8.33, -8.49, -9.26, -11.61, -12.56, -12.98, -13.57, -14.53, -15.02, -12.95, -11.12, -10.46, -9.83, -9.54, -9.6, -10.52, -12.43, -12.94, -10.02, -8.54, -11.03, -12.51, -13.44, -14.81, -14.95, -13.62, -11.99, -9.0, -6.7, -5.06, -3.6, -1.83, 0.0, 0.88, 1.99, 2.6, 1.72, 1.63, 0.79, 0.0, 0.0, 0.84, 0.0, 0.0, 0.89, 1.6, 1.63, 1.65, 0.0, 0.0, 0.0, 0.0, 0.84, 0.0, 0.0, 0.0, 0.0, 0.0, 0.0, -1.98, -4.0, -5.16, -6.98, -7.56, -8.94, -10.26, -9.81, -4.47, 2.84, 4.0, 3.58, 3.13, 2.24, 0.0, -1.34, -2.21, -2.0, -2.2, -1.98, -8.82, -8.43, -9.2, -9.2, -9.71, -9.48, -8.96, -8.68, -8.28, -8.51, -8.3, -8.48, -9.54, -9.24, -8.17, -6.55, -6.11, -6.79, -8.0, -8.56, -8.41, -8.41, -8.05, -7.1, -4.57, -5.2, -8.22, -11.35, -12.11, -11.88, -13.19, -14.75, -15.15, -13.44, -12.27, -11.51, -10.66, -7.5, -5.09, -8.41, -12.75, -13.99, -13.99, -11.56, -9.03, -9.24, -11.4, -10.21, -8.06, -5.69, -3.76, 0.0, 0.88, 1.84, 1.72, 1.73, 0.84, 0.84, 0.0, 0.0, 0.0, 0.0, 0.0, 0.0, 0.0, 0.82, 0.0, 0.0, 0.0, 0.0, 0.0, 0.0, -1.68, -1.47, 0.0, 0.83, 0.82, 0.89, 0.0, -1.49, -4.02, -5.59, -5.86, -6.79, -8.19, -8.19, -3.04, 2.21, 2.21, 2.68, 2.68, 1.79, 0.0, -1.58, -2.21, -1.98, -2.53, -1.9, -8.82, -8.43, -8.82, -9.2, -9.71, -9.88, -9.35, -8.96, -8.68, -8.68, -9.01, -9.2, -7.6, -7.87, -11.05, -10.41, -9.66, -9.66, -10.18, -10.04, -9.77, -9.32, -8.41, -4.47, 0.0, 0.0, -4.46, -8.15, -11.17, -13.57, -14.75, -14.3, -11.18, -8.94, -10.73, -11.18, -7.6, 0.0, 3.58, 0.0, -8.14, -12.3, -10.43, -4.0, 0.0, -2.98, -7.42, -9.24, -9.54, -7.12, -4.0, -1.13, 0.96, 0.82, 1.63, 1.73, 0.84, 0.0, 0.0, -0.8, -0.89, -1.73, -1.32, -0.88, 0.0, 0.0, 0.0, 0.0, 0.0, -0.89, -1.75, -2.28, -2.06, -1.43, 0.0, 0.0, -0.84, -0.84, 0.0, -0.79, -3.22, -4.47, -4.8, -4.46, -4.74, -4.29, -1.52, 0.0, 1.0, 1.26, 2.0, 1.26, 0.0, -0.99, -1.13, -1.2, 0.0, 0.0, -8.82, -8.82, -8.96, -8.96, -9.48, -9.88, -9.88, -9.35, -8.96, -9.2, -9.2, -9.48, -8.55, -7.23, -9.66, -10.6, -10.41, -7.09, -6.19, -5.88, -9.24, -8.9, -6.26, -2.24, 1.79, 0.0, -4.24, -4.66, -5.6, -8.6, -9.39, -4.34, 1.9, 2.68, -2.4, -6.71, -4.0, 4.0, 4.02, 3.9, -2.21, -9.54, -8.63, -2.21, 3.2, 1.58, -3.47, -6.65, -7.15, -5.75, -4.02, -1.2, 0.0, 0.88, 0.0, 0.0, -0.83, -1.65, -2.54, -2.69, -3.27, -3.2, -2.4, -0.98, 0.0, 0.0, 0.8, 0.0, -1.67, -3.27, -4.0, -3.61, -2.89, -1.47, -0.71, -1.47, -2.23, -2.54, -2.44, -3.32, -3.11, -3.95, -4.02, -3.84, -3.22, -2.26, -0.77, 0.0, 0.0, 0.0, 0.0, 0.0, 0.0, 0.0, -0.88, 0.0, 0.0, 1.79, -8.82, -8.82, -8.96, -9.35, -9.48, -9.88, -10.4, -9.63, -9.88, -9.35, -9.48, -9.63, -9.21, -7.55, -5.69, -4.94, -4.29, -5.21, -5.01, -4.43, -3.83, -3.2, -1.9, 0.0, 1.79, 0.0, -0.0, 0.6, 3.58, 2.68, -0.0, 2.98, 4.98, 4.57, 3.47, 1.58, 1.2, 2.97, 2.68, 3.13, -0.0, -6.71, -7.11, -3.16, 0.0, 0.0, -4.0, -6.07, -5.6, -5.2, -4.82, -3.13, -1.4, -0.87, -0.98, -1.66, -1.84, -3.33, -5.24, -5.59, -5.1, -4.58, -3.58, -1.2, 0.0, 1.72, 2.44, 0.0, -3.27, -4.83, -4.46, -3.8, -2.99, -2.54, -2.44, -2.47, -3.21, -4.0, -5.04, -5.04, -4.26, -3.35, -4.4, -4.0, -3.07, -2.35, -2.23, -2.28, -1.4, -1.55, -1.47, -0.79, 0.0, 0.0, -1.7, -0.96, 1.4, 2.4, -8.82, -8.55, -9.1, -9.1, -9.48, -10.0, -10.16, -10.16, -10.02, -9.63, -9.63, -9.63, -9.21, -8.45, -6.69, -4.45, -3.42, -3.21, -3.42, -3.4, -3.35, -2.71, -1.65, -0.5, 0.0, 0.57, 1.6, 2.23, 2.53, 2.44, 3.58, 2.98, 3.58, 3.16, 2.98, 2.97, 2.0, 2.24, 2.24, 1.58, -1.13, -5.75, -7.6, -5.75, -4.46, -4.02, -6.23, -7.6, -8.06, -7.63, -6.55, -5.75, -4.92, -4.38, -4.66, -4.0, -3.16, -2.2, -3.93, -5.2, -5.58, -5.2, -4.02, -2.24, 0.0, 1.08, 2.47, 1.84, -1.13, -4.0, -4.19, -3.63, -2.76, -2.6, -2.64, -3.27, -4.12, -4.96, -5.86, -5.38, -4.56, -4.16, -4.74, -5.6, -3.93, -3.72, -4.12, -3.8, -2.9, -2.12, -2.12, -2.4, -1.49, -0.96, -1.72, -0.82, 0.88, 1.98, -8.55, -8.55, -9.1, -9.48, -9.63, -10.16, -10.55, -10.55, -10.55, -10.02, -9.63, -9.63, -9.76, -9.02, -8.22, -6.34, -4.83, -4.0, -4.0, -3.97, -3.91, -3.89, -3.45, -2.1, -1.6, -0.0, 1.16, 1.6, 2.0, 2.22, 2.23, 2.95, 2.48, 2.53, 2.4, 2.24, 1.79, 1.79, 1.79, 1.26, -2.53, -6.51, -9.39, -10.04, -7.63, -5.2, -4.02, -7.06, -9.54, -9.97, -9.76, -8.05, -5.81, -3.58, 0.0, 0.0, 0.0, 0.0, -0.0, -1.0, -2.68, -5.36, -5.81, -5.36, -3.47, -1.9, 1.2, 3.04, 3.13, -1.58, -1.9, -0.0, -0.0, -0.0, -1.58, -2.23, -2.76, -4.43, -4.95, -4.95, -5.37, -6.01, -5.21, -4.74, -5.16, -4.54, -4.29, -4.29, -3.64, -2.9, -3.09, -3.79, -2.88, -2.6, -2.2, -0.89, 0.0, 0.0, -8.72, -9.1, -9.1, -9.48, -9.63, -10.16, -10.55, -10.68, -10.55, -10.3, -9.76, -9.76, -9.76, -9.3, -9.08, -7.93, -6.98, -5.69, -5.04, -5.04, -5.0, -4.98, -4.36, -3.94, -3.42, -1.58, -0.0, 0.51, 1.11, 1.73, 2.2, 2.48, 2.48, 2.21, 3.13, 2.68, 2.24, 0.0, 0.0, 0.0, -2.24, -6.26, -8.87, -9.33, -6.71, -2.68, 0.0, 0.0, -4.02, -6.14, -6.58, -4.47, -0.0, 3.6, 4.02, 4.02, 2.53, 0.0, -0.0, 2.53, 1.79, -2.68, -4.92, -6.26, -6.71, -5.36, 0.0, 4.47, 3.6, 3.13, 3.39, 5.21, 4.54, 2.95, 1.13, -0.0, -1.34, -2.8, -3.58, -3.79, -4.43, -5.06, -4.29, -3.0, -2.98, -4.22, -3.35, -2.98, -3.22, -2.6, -3.4, -4.22, -4.65, -3.9, -2.64, -1.84, -0.88, -0.88, -9.1, -9.1, -9.1, -9.21, -9.21, -10.16, -10.55, -10.68, -10.83, -10.3, -10.3, -9.76, -9.76, -9.5, -9.37, -8.53, -7.95, -6.97, -6.33, -5.67, -5.64, -5.62, -5.2, -4.57, -4.42, -3.22, -1.49, -0.0, 0.54, 1.13, 2.44, 2.86, 2.84, 3.82, 4.02, 3.04, 2.4, 1.79, 1.79, 0.0, -1.34, -3.9, -5.81, -6.26, -4.02, 1.79, 3.58, 3.58, 3.13, 2.68, 0.0, 3.13, 3.2, 3.13, 3.13, 3.58, 3.58, 2.68, -0.0, 2.68, 2.68, 3.13, 0.0, 0.0, -3.6, -3.6, 0.0, 2.0, 1.55, 3.6, 5.59, 6.79, 5.09, 2.84, 0.98, -0.0, -0.0, -1.2, -2.24, -3.13, -3.47, -3.93, -3.63, -2.47, -2.47, -0.88, 0.0, 0.0, -1.9, -2.0, -3.33, -5.43, -4.74, -3.79, -3.69, -3.0, -3.22, -3.22, -9.1, -9.1, -9.1, -9.21, -9.21, -9.76, -10.3, -10.83, -10.83, -10.68, -10.68, -10.04, -9.86, -9.86, -9.37, -8.81, -8.25, -7.95, -6.96, -6.31, -6.29, -5.83, -5.62, -5.23, -3.94, -3.35, -2.8, -0.99, 0.0, 0.0, 1.58, 3.43, 4.0, 5.6, 4.85, 4.92, 4.02, 3.58, 3.13, 2.24, 0.0, -2.24, -4.47, -4.82, -3.13, 2.24, 2.8, 2.8, 3.58, 4.02, 4.02, 3.58, 2.68, 0.0, 2.24, 2.68, 3.13, 3.13, 3.13, 3.13, 3.13, 3.58, 3.6, 3.6, 2.84, 1.98, 1.8, 0.0, 4.0, 5.36, 6.0, 3.58, 1.98, 0.99, -0.0, 0.99, -0.0, -0.87, -2.23, -2.23, -2.21, -3.13, -4.0, -3.35, -3.47, -2.6, 0.0, 0.0, -1.8, -3.47, -4.36, -5.46, -6.07, -5.69, -5.36, -4.65, -4.43, -4.43, -9.1, -9.1, -9.21, -9.21, -9.21, -9.76, -10.13, -10.83, -10.83, -10.83, -10.41, -10.41, -9.86, -9.86, -9.37, -8.82, -8.56, -7.96, -7.33, -6.29, -5.62, -5.6, -5.62, -4.57, -2.9, -2.25, -2.83, -2.23, -1.65, -1.76, 0.0, 2.0, 4.27, 4.55, 4.4, 5.6, 4.22, 4.0, 3.58, 2.68, 2.24, 0.0, -3.13, -3.6, -1.9, -0.0, 1.9, 1.9, 2.21, 2.21, 2.21, 1.9, 0.0, 0.0, 0.0, 0.0, 1.9, 2.21, 2.53, 3.2, 2.21, 2.21, 2.53, 2.21, 3.2, 2.97, 1.2, 0.0, 2.53, 4.47, 2.2, -0.0, -0.0, -0.0, 1.9, 3.13, 2.68, 0.0, -0.0, -0.0, 0.98, -0.0, -2.0, -4.19, -4.89, -4.43, -5.06, -1.83, -3.63, -4.43, -4.54, -5.6, -6.94, -7.32, -6.73, -5.77, -5.46, -5.46, -9.1, -9.1, -9.21, -9.21, -9.21, -9.3, -9.5, -10.41, -10.83, -10.83, -10.41, -10.41, -10.41, -9.86, -9.86, -10.58, -8.53, -8.56, -6.96, -5.64, -5.32, -5.55, -5.83, -6.21, -4.8, -4.54, -3.4, -4.92, -4.83, -3.22, -2.53, 0.45, 3.39, 3.88, 4.0, 3.43, 2.84, 1.9, 2.4, 3.13, 2.24, 2.24, 2.68, 1.9, -0.0, -0.0, -0.0, 1.9, 2.21, 2.21, -0.0, -0.0, 0.0, 0.0, 0.0, 0.0, 0.0, 0.0, 0.0, 0.0, 1.9, 2.21, 2.21, 1.58, 2.24, 2.0, 0.0, 0.0, 0.0, 2.21, 0.0, 0.0, 0.0, 1.0, 2.4, 2.8, 1.98, 1.98, 2.4, 3.39, 2.68, 0.99, -2.0, -3.95, -5.75, -6.82, -7.81, -6.68, -6.11, -4.81, -4.6, -5.6, -7.76, -8.14, -7.07, -6.44, -6.8, -6.8, -9.1, -9.1, -9.21, -9.21, -8.94, -9.3, -9.3, -9.86, -10.41, -10.58, -10.58, -10.41, -10.41, -9.94, -9.94, -9.37, -9.08, -8.5, -9.56, -7.73, -7.13, -6.46, -6.9, -8.18, -7.82, -7.18, -6.53, -5.37, -5.69, -4.74, -2.79, 0.0, 2.6, 3.2, 3.35, 3.14, 2.53, 1.9, 1.58, 1.26, 1.26, 1.49, 2.0, 2.4, 1.26, -0.0, -0.0, 2.21, 2.21, 2.21, 1.9, 2.68, 2.68, 2.24, 1.79, 1.79, 0.0, 0.0, 0.0, 0.0, 0.0, 0.0, 2.24, 2.68, 2.24, 2.24, 0.0, 0.0, 0.0, 0.96, 1.63, 1.6, 0.79, 0.0, 0.0, -0.82, -0.96, 0.0, 3.58, 4.0, 2.68, 1.27, -0.0, -1.58, -3.9, -4.8, -5.43, -4.81, -5.72, -4.81, -4.98, -5.6, -7.63, -8.63, -7.98, -7.76, -7.35, -7.35, -9.1, -9.1, -9.21, -9.21, -9.3, -9.3, -9.3, -9.86, -9.86, -10.41, -10.96, -10.79, -10.51, -10.15, -10.51, -9.66, -9.08, -9.37, -9.3, -10.63, -10.18, -7.33, -7.96, -7.96, -7.32, -6.06, -5.08, -5.01, -4.94, -3.88, -1.34, 0.0, 1.7, 2.6, 2.68, 2.68, 2.21, 1.9, 1.58, 1.26, 1.26, 1.26, 1.86, 1.86, 1.26, 1.9, 1.9, 2.21, 2.21, 2.21, 2.21, 3.13, 3.13, 2.68, 2.68, 1.79, 0.0, 0.0, 0.0, 0.0, 0.0, 0.0, 0.0, 2.24, 1.79, 1.79, 1.26, 1.4, 1.66, 2.47, 3.45, 1.69, 0.0, -0.79, -2.57, -3.4, -3.64, -1.8, 2.68, 3.6, 2.23, 0.98, -0.0, -0.0, -0.0, -2.24, -3.13, -2.53, -3.22, -3.9, -4.95, -5.49, -6.16, -7.01, -8.19, -7.76, -6.85, -6.85, -9.1, -9.1, -9.21, -9.21, -9.3, -9.3, -9.3, -9.37, -9.59, -10.41, -10.96, -10.96, -10.51, -10.51, -10.23, -10.01, -9.66, -9.42, -9.72, -9.66, -8.5, -7.6, -7.32, -7.33, -7.61, -6.7, -5.08, -4.47, -3.48, -2.17, 0.0, 0.0, 0.89, 1.79, 2.6, 2.4, 2.15, 1.9, 1.86, 1.26, 1.2, 1.26, 1.26, 1.49, 1.26, 0.63, 1.9, 2.21, 3.2, 2.8, 2.21, 3.13, 2.68, 2.68, 2.68, 0.0, 0.0, -1.58, -1.9, -2.24, -1.34, 0.0, -0.0, -0.0, 1.79, 1.79, 1.79, 1.58, 1.4, 3.48, 2.8, 1.32, 0.0, 0.0, -4.19, -5.37, -5.69, -3.72, 0.0, 3.58, 3.35, 1.13, -0.0, -0.0, -1.13, -2.21, -3.13, -4.38, -4.74, -5.13, -6.58, -6.01, -4.46, -4.85, -6.21, -6.98, -6.94, -6.94, -9.1, -9.1, -8.84, -9.21, -9.3, -9.3, -9.02, -9.37, -9.37, -9.94, -10.51, -10.96, -10.51, -10.51, -10.51, -10.01, -9.72, -9.72, -9.77, -9.48, -7.95, -6.71, -6.34, -6.08, -6.7, -6.98, -6.33, -5.08, -3.47, -1.58, 0.0, 0.0, 0.45, 0.89, 1.79, 2.17, 2.0, 1.86, 1.49, 1.6, 1.2, 1.2, 1.26, 1.86, 1.86, 1.26, 2.21, 2.53, 3.2, 3.2, 2.8, 3.13, 2.68, 2.68, 2.24, 0.0, 0.0, -1.79, -3.13, -2.4, -2.24, -1.34, 0.0, 0.0, 0.0, 1.34, 0.0, 0.0, 0.0, 0.0, 0.0, 0.0, 1.8, -0.0, -3.13, -4.4, -5.43, -4.43, -0.85, 2.68, 3.58, 3.35, 1.13, -0.0, -1.8, -3.35, -4.92, -6.2, -6.18, -6.11, -7.59, -6.98, -4.43, -2.6, -3.47, -5.59, -6.51, -6.51, -9.1, -9.1, -8.84, -9.21, -9.3, -9.3, -9.37, -9.37, -9.37, -9.94, -10.15, -10.15, -10.15, -10.15, -9.94, -10.01, -9.72, -10.06, -9.77, -9.19, -8.24, -6.94, -5.64, -5.69, -6.08, -6.7, -6.71, -6.34, -4.83, -2.86, -0.6, 0.0, 0.0, 0.32, 1.34, 1.79, 1.7, 1.7, 1.7, 1.6, 1.2, 1.2, 1.26, 1.86, 1.9, 1.9, 1.8, 2.84, 3.6, 3.6, 3.2, 3.13, 2.68, 2.24, 2.24, 0.0, 0.0, 0.0, -2.68, -3.58, -2.68, -2.24, 0.0, 0.0, 0.0, 0.0, 0.0, 0.0, 0.0, 0.0, 0.0, 2.0, -0.0, -0.0, -0.0, -3.13, -4.09, -5.2, -2.53, 1.79, 3.58, 3.95, 3.22, 0.99, -1.13, -4.0, -5.36, -5.75, -4.82, -4.02, -6.82, -6.64, -4.84, -2.53, -2.53, -4.22, -5.34, -5.34, -9.1, -9.1, -8.84, -9.21, -8.94, -9.3, -9.37, -9.37, -9.08, -9.42, -9.94, -9.94, -10.15, -10.15, -9.94, -10.01, -9.72, -9.46, -9.17, -9.48, -8.87, -7.96, -7.16, -6.27, -5.67, -6.08, -6.34, -6.7, -5.72, -4.45, -2.23, -0.57, 0.0, 0.0, 0.0, 0.89, 1.34, 1.34, 1.34, 1.34, 1.34, 1.2, 1.2, 1.58, 1.61, 1.88, 1.61, 1.61, 1.61, 1.9, 2.4, 3.2, 3.13, 2.68, 2.24, 0.0, 2.21, 1.2, 0.0, 0.0, -3.13, -2.0, -1.58, 0.0, 0.0, 0.0, 0.0, 0.0, -1.58, 0.0, 0.0, 0.0, -0.0, -1.13, -0.0, -0.0, -1.79, -2.98, -2.84, 0.0, 2.24, 3.13, 3.47, 3.04, 1.4, -1.98, -3.35, -3.9, -2.98, -2.15, -2.95, -4.92, -4.8, -3.79, -2.79, -3.48, -4.22, -4.22, -9.1, -9.1, -8.84, -9.21, -8.94, -9.3, -9.3, -9.37, -9.42, -9.42, -9.42, -9.94, -9.94, -10.51, -10.23, -10.01, -9.72, -9.46, -9.17, -9.17, -8.87, -8.87, -8.22, -6.9, -6.5, -5.64, -5.69, -6.35, -5.72, -4.78, -3.2, -1.88, -1.0, -0.57, 0.0, 0.0, 0.89, 0.89, 0.89, 1.34, 1.34, 0.89, 0.63, 0.95, 1.24, 1.2, 1.61, 1.61, 1.61, 1.88, 2.5, 2.5, 3.82, 3.58, 2.68, 2.24, 2.68, 2.68, 2.21, 2.53, 0.0, -2.21, -1.58, 0.0, 0.0, 0.0, 0.0, 0.0, -1.9, -0.99, -0.98, 0.0, -1.79, -1.2, -0.98, -0.0, -0.0, -2.24, -2.98, -1.2, 0.0, 2.24, 3.04, 3.58, 2.54, -0.0, -0.87, -1.13, -2.23, -2.3, -3.48, -4.02, -4.8, -4.81, -4.43, -4.11, -3.83, -3.83, -9.1, -9.1, -8.65, -9.01, -8.94, -8.94, -9.3, -9.37, -9.42, -9.42, -9.42, -9.42, -9.66, -10.51, -10.59, -10.59, -9.72, -9.46, -9.17, -8.87, -8.58, -8.59, -8.22, -7.55, -6.9, -6.5, -6.31, -5.7, -5.44, -5.06, -3.79, -3.16, -2.58, -1.8, -1.16, -0.54, 0.0, 0.0, 0.0, 0.0, 0.45, 0.45, 0.0, 0.63, 0.6, 0.99, 1.58, 1.9, 1.9, 1.88, 2.21, 2.79, 3.07, 3.39, 3.47, 2.97, 2.68, 2.68, 2.21, 1.98, 0.0, -1.79, -2.68, 0.0, 0.0, 0.0, 0.0, 0.0, -1.2, -1.98, -2.0, -1.83, -0.87, 0.0, -0.0, 0.88, 0.88, -1.26, -2.4, -2.21, -1.0, 0.0, 1.9, 3.2, 3.13, 0.85, -0.98, -2.23, -2.84, -2.23, -1.74, -2.6, -5.51, -6.21, -6.07, -5.09, -4.46, -4.46, -9.1, -9.1, -8.65, -9.01, -8.73, -8.94, -9.3, -9.37, -9.37, -9.42, -9.42, -9.42, -9.42, -10.01, -10.59, -10.59, -10.06, -9.72, -9.17, -8.87, -8.58, -8.58, -7.96, -7.57, -7.57, -6.9, -6.27, -6.31, -5.72, -4.74, -4.07, -3.48, -2.86, -2.6, -2.23, -1.61, -1.0, -0.57, 0.0, 0.0, 0.0, 0.0, 0.0, 0.0, 0.0, -0.0, 1.26, 1.9, 2.15, 2.5, 2.21, 2.79, 3.35, 3.72, 3.6, 3.9, 3.13, 3.13, 2.4, 1.98, 0.99, 0.0, 0.0, -0.0, 0.0, 0.0, -1.0, 0.0, 0.0, -1.13, -1.08, -1.7, -1.7, -0.98, 1.79, 3.93, 2.95, -0.0, -2.68, -2.97, -2.21, -0.8, 0.57, 2.23, 2.68, 2.0, -0.0, -1.98, -1.4, -0.0, 2.4, -0.0, -4.92, -6.51, -6.54, -6.4, -5.82, -5.82, -8.93, -8.93, -8.65, -8.65, -8.73, -8.94, -9.3, -9.37, -9.37, -9.42, -9.42, -9.08, -9.42, -9.66, -10.23, -10.59, -10.3, -10.06, -9.46, -9.17, -8.58, -8.58, -7.96, -7.59, -7.96, -7.96, -7.32, -6.96, -6.35, -5.06, -4.07, -3.43, -3.48, -3.2, -2.6, -2.23, -1.61, -1.2, -0.57, -0.6, 0.0, 0.0, 0.0, 0.0, 0.0, 0.0, 0.6, 2.15, 2.5, 2.5, 2.68, 2.79, 3.14, 3.43, 3.43, 3.6, 4.24, 4.02, 2.97, 2.53, 1.2, 1.79, 1.79, -0.0, 0.0, -1.58, -1.2, -1.2, -1.2, 0.0, -0.98, -1.7, -1.84, -2.8, -1.13, 2.4, 2.68, -0.0, -2.21, -3.13, -3.39, -1.86, 0.0, 1.34, 3.47, 3.47, 2.54, 1.2, 1.2, 2.97, 3.58, 2.4, -2.6, -6.26, -7.45, -7.28, -6.54, -6.54, -8.93, -8.93, -8.65, -8.65, -8.73, -8.73, -9.3, -9.37, -9.37, -9.42, -9.42, -9.42, -9.08, -9.42, -9.66, -10.59, -10.59, -10.3, -10.06, -9.17, -9.17, -8.58, -8.58, -8.24, -7.96, -7.96, -7.59, -7.22, -6.34, -5.37, -4.29, -3.43, -3.48, -3.2, -3.2, -2.86, -2.23, -1.61, -1.2, -1.24, -0.57, 0.0, 0.0, 0.0, 0.0, 0.0, 0.0, 2.4, 2.4, 2.5, 2.68, 3.07, 3.14, 3.43, 3.48, 3.43, 3.35, 3.39, 4.47, 3.13, 2.68, 1.58, 1.58, 1.26, 0.0, 0.0, -1.58, -3.2, -2.97, -2.53, -2.68, -2.76, -1.72, -2.51, -3.55, -0.98, 2.24, 1.98, -0.99, -3.9, -4.02, -2.68, -1.34, 0.71, 2.23, 3.48, 3.48, 2.3, 1.6, 1.58, 2.24, 1.79, -1.9, -6.64, -7.6, -7.92, -7.71, -7.71, -8.93, -8.93, -8.65, -8.65, -8.73, -8.73, -9.3, -9.02, -9.37, -9.42, -9.42, -9.42, -9.08, -9.08, -9.42, -10.01, -10.59, -10.59, -9.72, -9.72, -9.17, -9.17, -8.58, -8.24, -8.24, -7.96, -7.96, -7.33, -6.34, -5.41, -4.37, -3.43, -3.16, -3.49, -3.49, -3.2, -2.86, -2.23, -1.61, -1.2, -1.0, -0.57, 0.0, 0.0, 0.63, 0.0, 1.26, 1.86, 2.4, 2.4, 2.68, 3.07, 2.79, 3.09, 3.43, 3.48, 3.48, 3.78, 3.72, 3.58, 2.23, 0.99, 1.58, 0.0, 0.0, 0.0, 0.0, -2.53, -4.0, -4.46, -3.93, -3.48, -0.96, -0.89, -2.51, -3.47, 0.0, 2.54, 1.2, -3.35, -4.38, -3.95, -1.86, -0.0, 1.27, 1.76, 1.76, 1.55, 1.49, 1.74, 2.24, 1.79, -1.79, -5.16, -7.57, -8.49, -8.01, -8.01, -8.93, -8.93, -8.65, -8.65, -8.73, -8.73, -9.3, -9.02, -9.37, -9.08, -9.42, -9.42, -9.08, -9.08, -9.42, -9.42, -10.01, -10.01, -9.72, -9.72, -9.72, -9.17, -8.87, -8.58, -8.24, -8.24, -7.96, -7.61, -8.01, -5.71, -5.01, -4.07, -3.73, -3.79, -3.79, -3.79, -3.2, -2.86, -2.23, -1.84, -1.88, -1.0, -0.57, 0.0, 0.0, 0.89, 1.2, 1.49, 1.86, 2.4, 2.5, 2.68, 3.07, 2.79, 3.14, 2.86, 2.86, 2.86, 2.86, 2.23, 1.8, 1.2, 0.0, 0.0, 0.0, 0.0, 0.0, 0.0, -1.8, -3.6, -2.98, -2.53, -2.0, 0.0, -0.88, -2.8, -0.0, 2.21, 2.21, -0.85, -3.22, -4.15, -3.2, -1.49, -0.0, 0.57, 1.23, 1.27, 2.0, 2.15, 2.6, 2.68, 0.89, -3.74, -7.01, -8.01, -8.05, -8.05, -8.93, -8.93, -8.65, -8.65, -8.73, -8.73, -9.3, -9.02, -9.37, -9.08, -9.42, -9.08, -9.08, -9.08, -9.42, -9.13, -9.72, -9.72, -10.01, -10.01, -9.72, -9.46, -9.17, -8.87, -7.96, -8.24, -7.96, -7.95, -6.98, -7.9, -5.49, -4.65, -4.07, -3.79, -4.11, -4.11, -3.79, -3.2, -2.86, -2.23, -1.84, -1.88, -1.0, -0.57, 0.0, 0.45, 1.2, 1.6, 1.86, 2.4, 2.15, 2.5, 2.5, 2.79, 2.79, 2.79, 2.51, 2.22, 2.22, 1.6, 1.2, -0.0, 0.0, 0.0, 0.0, 0.0, 0.0, 0.0, 0.0, 0.0, 0.0, -1.58, -2.23, -1.83, 0.0, -0.0, 0.98, 0.99, 1.58, -0.0, -1.9, -3.2, -3.47, -2.97, -1.58, -0.0, 0.61, 1.16, 2.23, 3.16, 4.0, 3.47, 2.68, -1.6, -5.43, -7.42, -7.45, -7.45, -8.93, -8.93, -8.65, -8.65, -8.73, -8.73, -9.08, -9.02, -9.37, -9.08, -9.08, -9.08, -9.08, -9.08, -9.13, -9.13, -9.13, -9.46, -9.39, -9.66, -9.66, -9.46, -9.17, -8.56, -8.28, -8.58, -8.24, -7.95, -7.9, -6.92, -5.49, -4.69, -4.55, -4.37, -3.83, -3.83, -4.11, -3.49, -3.2, -2.86, -2.23, -1.84, -1.88, -1.24, -0.6, 0.0, 0.0, 1.2, 1.49, 1.86, 2.15, 2.5, 2.5, 2.21, 2.53, 2.53, 2.53, 2.23, 2.23, 1.84, 2.21, 0.0, 0.0, 0.0, 0.0, 0.0, 0.0, 1.0, 0.0, 1.6, 0.0, 0.0, -2.98, -3.72, -2.23, -0.0, 0.99, 1.0, 0.0, 0.0, -1.79, -3.13, -3.58, -3.04, -2.68, -1.34, -0.0, 0.8, 1.98, 2.84, 4.0, 4.0, 3.58, 1.34, -4.15, -6.94, -7.28, -7.28, -8.93, -8.93, -8.65, -8.65, -8.73, -8.73, -8.73, -9.02, -9.37, -9.08, -9.08, -9.08, -9.08, -9.08, -9.08, -9.13, -9.13, -9.46, -9.46, -9.66, -9.66, -9.13, -9.13, -8.56, -8.87, -8.58, -8.56, -8.24, -7.9, -6.64, -5.01, -4.55, -4.17, -4.65, -4.43, -4.43, -3.83, -3.79, -3.49, -3.2, -2.86, -2.23, -1.84, -1.88, -1.24, -0.95, 0.0, 0.63, 1.26, 1.86, 2.23, 2.15, 2.5, 2.21, 2.21, 2.53, 2.53, 2.53, 2.23, 2.21, 1.86, 2.68, 0.0, 0.0, 0.0, 0.0, 1.26, 1.58, 1.2, 0.0, 0.0, -2.53, -3.22, -3.55, -2.64, -0.87, 0.0, 0.0, 0.0, -2.4, -2.97, -3.04, -3.47, -3.47, -2.23, -1.58, -0.95, 0.0, 2.4, 2.98, 3.6, 4.0, 3.9, 2.68, -1.34, -5.86, -7.47, -7.47, -8.93, -8.93, -8.65, -8.65, -8.73, -8.73, -8.73, -8.78, -9.02, -9.08, -9.08, -9.08, -9.08, -9.08, -9.08, -9.42, -9.13, -9.46, -9.72, -10.01, -9.66, -9.42, -9.13, -8.85, -9.17, -8.87, -8.87, -8.24, -7.9, -6.95, -5.65, -4.29, -4.0, -4.29, -4.43, -4.43, -4.12, -3.83, -3.79, -3.49, -3.48, -2.86, -2.23, -2.23, -1.88, -1.58, -0.63, 0.0, 0.95, 1.26, 1.86, 1.9, 1.9, 1.61, 1.88, 2.21, 2.53, 2.53, 2.53, 2.21, 1.9, 1.6, 2.24, 1.79, 1.79, 0.0, 0.0, 0.0, 0.0, 0.0, 0.0, -0.99, -1.7, -1.84, -2.4, -1.73, -0.96, 0.0, -1.2, -2.54, -3.58, -3.95, -3.47, -3.2, -2.6, -1.9, -1.2, 0.0, 2.24, 2.4, 3.39, 3.6, 3.9, 3.13, 0.95, -3.47, -7.6, -7.6, -8.93, -8.93, -8.65, -8.65, -9.01, -8.73, -8.73, -8.78, -8.78, -9.08, -9.08, -9.08, -9.08, -9.08, -9.08, -9.42, -9.13, -9.46, -9.72, -10.01, -9.66, -9.66, -9.13, -9.13, -9.17, -9.17, -8.56, -8.53, -7.9, -7.23, -6.23, -4.94, -4.07, -3.79, -4.43, -4.43, -4.16, -4.12, -3.83, -3.79, -3.79, -3.16, -2.84, -2.95, -2.21, -2.21, -1.58, -0.89, 0.0, 0.6, 1.26, 1.58, 1.9, 1.9, 1.61, 1.88, 2.21, 2.53, 2.53, 2.21, 1.9, 1.26, 2.68, 2.24, 1.79, 0.0, 0.0, 0.0, 0.0, 0.0, 0.0, 0.0, 0.0, 0.0, -1.84, -3.4, -3.55, -2.6, -2.21, -2.24, -3.47, -3.58, -3.51, -3.47, -2.97, -1.9, -1.26, 0.0, 1.34, 2.24, 2.97, 3.6, 3.6, 2.97, 1.79, -1.79, -4.4, -6.54, -8.55, -8.55, -8.65, -8.65, -9.01, -8.73, -8.73, -8.78, -8.78, -8.78, -9.08, -9.08, -9.08, -9.08, -9.08, -9.42, -9.42, -9.46, -9.72, -10.01, -9.66, -9.42, -9.42, -9.13, -9.13, -9.17, -8.85, -8.53, -7.9, -7.51, -6.57, -5.59, -4.71, -4.11, -4.43, -4.45, -4.45, -4.45, -4.16, -3.83, -3.79, -3.73, -3.43, -3.93, -2.21, -2.23, -2.79, -1.86, -0.89, -0.0, 0.95, 1.26, 1.24, 1.24, 1.61, 1.61, 2.21, 2.21, 2.53, 2.53, 2.15, 1.86, 2.68, 1.79, 1.34, 0.0, 0.0, 0.0, 0.0, 0.0, 0.0, 0.0, -1.8, -0.88, -0.83, -3.33, -5.06, -5.15, -3.22, -2.0, -1.74, -3.47, -3.58, -3.04, -2.0, -1.26, 0.0, 0.0, 0.0, 0.0, 1.58, 2.98, 3.6, 2.98, 1.58, -0.0, -2.23, -4.4, -8.55, -8.55, -8.65, -8.65, -8.65, -8.73, -8.73, -8.73, -8.78, -8.78, -8.78, -8.82, -9.08, -9.08, -9.08, -9.42, -9.42, -9.13, -9.72, -10.01, -9.66, -9.42, -9.08, -9.42, -9.13, -9.13, -9.13, -8.53, -8.19, -7.51, -6.79, -5.93, -5.01, -4.74, -4.45, -4.45, -4.47, -4.47, -4.75, -4.45, -4.37, -4.07, -4.07, -3.35, -3.93, -3.14, -3.72, -3.07, -1.7, 0.0, 0.63, 0.8, 1.26, 1.24, 1.49, 1.61, 1.88, 2.53, 2.79, 2.79, 2.5, 1.86, 0.95, 0.0, 0.0, 2.24, 1.79, 1.79, 0.0, 0.0, 0.0, -1.2, -2.0, -1.55, 0.0, -1.8, -4.22, -5.21, -4.6, -2.24, -1.58, -2.0, -2.24, -1.79, -0.95, 0.0, -0.8, -1.0, 0.0, 0.0, 0.0, 1.2, 1.98, 2.21, 1.0, -0.0, -1.26, -2.23, -8.55, -8.55, -8.93, -8.65, -8.65, -8.73, -8.73, -8.73, -8.78, -8.78, -8.78, -8.82, -9.08, -9.08, -9.08, -9.42, -9.42, -9.42, -10.06, -10.23, -9.66, -9.42, -9.42, -9.08, -8.82, -8.82, -9.13, -8.82, -8.19, -7.51, -6.79, -6.15, -5.59, -5.06, -4.78, -5.08, -5.08, -5.08, -5.08, -5.06, -4.74, -4.71, -4.65, -4.29, -3.88, -4.8, -3.87, -3.87, -2.63, -0.89, -0.0, 0.6, 0.6, 0.57, 1.24, 1.9, 1.9, 2.5, 2.79, 2.79, 2.79, 2.4, 2.21, 2.24, 2.24, 0.0, 1.79, 2.24, 0.0, 0.0, -1.0, -2.21, -3.16, -2.0, 0.0, 0.0, -3.13, -4.47, -4.82, -2.68, -1.34, 0.0, 0.0, 0.0, 0.0, 0.0, -1.13, -0.99, -1.2, -1.58, -1.34, -0.0, -0.0, 1.2, -0.0, -1.26, -1.26, -1.26, -8.55, -8.55, -8.93, -8.65, -8.65, -8.73, -8.73, -8.73, -8.45, -8.78, -8.78, -8.82, -8.82, -9.08, -9.08, -9.42, -9.42, -9.66, -10.01, -10.59, -10.01, -9.66, -9.66, -9.42, -9.08, -8.82, -8.82, -8.82, -8.45, -7.51, -6.79, -6.51, -5.65, -5.65, -5.69, -5.1, -5.1, -5.71, -5.41, -5.38, -5.06, -5.01, -4.94, -4.71, -4.07, -2.68, -2.17, -3.58, -3.13, -1.79, 0.0, -0.0, -0.0, 0.6, 0.57, 1.24, 1.9, 2.5, 2.53, 2.79, 2.79, 2.5, 1.86, 2.68, 0.0, 0.0, 0.0, 0.0, 0.0, 0.0, -1.2, -2.98, -3.48, -2.23, -2.0, 0.0, -0.0, -2.23, -3.6, -2.97, -1.34, 0.0, 0.0, 0.0, 0.0, -0.96, -0.88, -0.98, -1.13, -1.74, -2.4, -2.24, -1.58, -0.0, -1.26, -1.79, -1.79, -1.79, -8.55, -8.55, -8.93, -8.65, -8.65, -8.38, -8.73, -8.73, -8.45, -8.78, -8.78, -8.78, -8.82, -9.08, -9.08, -9.42, -9.42, -9.66, -10.23, -10.59, -10.01, -10.01, -10.01, -9.42, -9.08, -8.82, -8.5, -8.78, -8.38, -7.73, -7.15, -6.44, -6.23, -5.95, -6.01, -5.71, -5.71, -5.72, -5.71, -5.41, -5.37, -5.35, -5.29, -4.94, -4.11, -2.86, -1.86, -2.68, -2.68, -1.79, -0.89, -0.0, -0.0, -0.0, 0.8, 0.99, 1.9, 2.15, 2.5, 2.53, 2.53, 2.21, 2.23, 3.13, 2.24, 0.0, 0.0, 0.0, 0.0, 0.0, -1.2, -2.53, -2.84, -3.48, -2.95, -0.99, 1.79, -0.0, -1.13, -1.58, 0.0, 0.0, 0.0, 0.0, -0.81, -1.55, -1.7, -1.83, -2.0, -1.8, -1.98, -2.4, -2.24, -2.0, -2.24, -1.79, -1.79, -1.79, -8.55, -8.55, -8.93, -8.65, -8.65, -8.65, -8.73, -8.73, -8.73, -8.45, -8.78, -8.78, -8.82, -9.08, -9.08, -9.42, -9.66, -10.01, -10.23, -10.59, -10.23, -10.01, -10.23, -9.66, -9.08, -9.08, -8.5, -8.19, -8.15, -8.0, -7.35, -6.79, -6.79, -6.28, -6.32, -6.04, -6.04, -6.04, -6.01, -5.71, -5.69, -5.06, -5.01, -4.94, -4.71, -3.79, -2.79, -2.4, -2.68, -2.24, -1.34, -0.89, -0.0, -0.0, 0.6, 1.26, 1.86, 2.23, 2.15, 2.5, 2.53, 2.21, 1.9, 1.7, 2.68, 0.0, 0.0, 0.0, 0.0, 0.0, 0.0, -1.2, -2.23, -2.53, -1.99, 0.0, 0.88, 0.87, 0.0, 2.21, 3.48, 2.4, 0.81, -0.88, -1.66, -1.49, -0.79, 0.0, 0.0, 0.0, 0.0, -2.24, -2.68, -2.68, -2.68, -2.68, -2.68, -2.68, -8.55, -8.55, -8.93, -8.65, -8.65, -8.65, -8.38, -8.73, -8.73, -8.45, -8.78, -8.78, -8.82, -9.08, -9.42, -9.42, -9.66, -10.23, -10.87, -11.07, -10.23, -10.01, -10.23, -9.66, -9.08, -9.08, -8.5, -8.45, -8.15, -7.73, -7.44, -7.09, -7.09, -6.87, -6.92, -6.34, -6.65, -6.34, -6.04, -5.71, -5.69, -5.65, -5.35, -5.29, -4.94, -4.37, -4.0, -3.07, -2.6, -2.24, -1.79, -1.34, -0.89, -0.0, -0.0, 1.26, 1.26, 1.86, 2.23, 2.15, 2.21, 2.21, 1.9, 1.86, 0.89, 0.0, 0.0, 0.0, 0.0, 0.0, 0.0, 0.0, 0.0, -0.98, 0.0, 0.98, 0.88, 0.88, 1.84, 3.47, 4.16, 3.55, 0.0, -1.9, -2.0, 0.0, 1.26, 1.58, 1.58, 2.24, 0.0, -2.24, -3.13, -3.58, -3.58, -3.13, -3.13, -3.13, -8.55, -8.55, -8.55, -8.93, -8.65, -8.65, -8.65, -8.73, -8.73, -8.45, -8.78, -8.78, -8.82, -9.08, -9.42, -9.42, -9.66, -10.51, -11.07, -11.07, -10.23, -10.01, -10.01, -9.66, -9.08, -9.08, -9.37, -8.78, -8.38, -8.08, -8.0, -7.44, -7.44, -7.44, -6.92, -6.95, -6.67, -6.67, -6.34, -6.32, -5.71, -5.69, -5.65, -5.35, -5.29, -4.71, -4.29, -3.43, -2.68, -2.17, -1.79, -1.79, -1.34, -0.63, 0.63, 0.95, 1.2, 1.26, 1.86, 1.9, 2.5, 1.88, 1.9, 1.26, 0.89, 0.0, 0.0, 0.0, 0.0, 0.0, 1.58, 1.58, 0.0, 0.0, 0.0, 0.0, 0.0, 0.0, 1.7, 2.99, 3.47, 2.64, 0.0, -1.79, -0.0, 2.84, 3.2, 3.13, 2.4, 1.2, -0.0, -1.79, -2.68, -3.47, -3.47, -3.39, -3.39, -3.39, -8.55, -8.55, -8.55, -8.55, -8.65, -8.65, -8.65, -8.73, -8.73, -8.73, -8.78, -8.78, -9.08, -9.08, -9.42, -9.66, -10.51, -11.07, -11.07, -11.07, -11.07, -9.66, -9.66, -9.66, -9.42, -9.66, -9.37, -9.02, -8.73, -8.08, -7.73, -8.0, -7.44, -7.44, -7.51, -7.23, -6.97, -6.67, -6.95, -6.34, -6.32, -6.28, -5.65, -5.59, -5.29, -4.94, -4.65, -4.0, -3.35, -2.68, -2.17, -2.12, -1.34, -0.89, -0.0, 0.63, 0.95, 1.2, 1.26, 1.86, 1.9, 1.9, 1.9, 1.6, 0.89, 0.0, 0.0, 0.0, 0.0, 0.0, 0.0, 1.58, 0.0, 0.0, 0.0, 0.0, 0.0, 0.0, 2.0, 2.2, 0.96, 0.96, 0.0, -1.79, -0.0, 3.48, 4.15, 3.58, -0.0, -0.0, -0.0, -0.0, -1.79, -3.13, -3.58, -3.58, -3.58, -3.58, -8.55, -8.55, -8.55, -8.55, -8.65, -8.65, -8.65, -8.38, -8.73, -8.73, -8.78, -8.78, -9.37, -9.08, -9.42, -9.66, -10.51, -11.07, -11.07, -11.07, -11.07, -9.66, -9.42, -9.08, -9.37, -9.94, -9.59, -9.02, -8.73, -8.29, -8.08, -8.0, -8.0, -7.8, -7.51, -7.23, -6.97, -6.67, -6.95, -6.92, -6.32, -6.28, -6.23, -5.65, -5.59, -4.94, -4.65, -4.29, -3.64, -3.35, -2.91, -2.6, -1.7, -1.34, 0.0, 0.0, 0.89, 0.63, 1.2, 1.26, 1.58, 1.24, 1.24, 1.26, 1.34, 1.79, 1.34, 0.0, 0.0, -1.26, 0.0, 0.0, 1.26, 0.0, 0.0, 0.0, 0.0, 0.0, 0.99, 0.98, 0.0, 0.88, 0.98, 0.0, -0.0, 3.22, 3.95, 2.68, 0.0, -0.0, -0.0, -0.0, -0.0, -2.24, -3.13, -3.58, -3.58, -3.58, -8.82, -8.82, -8.55, -8.55, -8.93, -8.65, -8.65, -8.65, -8.73, -8.73, -8.78, -8.78, -9.37, -9.08, -9.66, -10.3, -11.07, -11.34, -11.34, -10.7, -11.07, -10.23, -9.66, -9.42, -9.08, -9.37, -9.37, -9.3, -8.65, -8.29, -8.37, -8.0, -8.0, -7.8, -7.51, -7.23, -7.55, -6.95, -6.95, -6.92, -6.59, -6.28, -6.28, -5.65, -5.59, -5.29, -5.21, -4.65, -4.0, -3.72, -3.6, -2.91, -2.6, -0.89, 0.0, 0.0, 0.0, 0.45, 0.89, 0.95, 1.26, 1.26, 1.58, 1.26, 1.34, 2.24, 1.79, 0.0, 0.0, -1.26, -1.58, -1.26, 0.0, 1.79, 0.0, 0.0, 0.0, 0.0, 0.0, 0.0, 0.0, 1.13, 1.13, 0.0, -0.0, 4.15, 3.95, 3.13, 0.95, -1.26, -0.95, -0.0, -0.0, -1.79, -2.68, -3.13, -3.13, -3.13, -8.82, -8.82, -8.55, -8.55, -8.93, -8.65, -8.65, -8.65, -8.73, -8.73, -9.08, -9.02, -9.37, -9.37, -9.94, -10.51, -11.07, -11.5, -11.34, -10.96, -10.51, -10.87, -10.01, -9.42, -9.08, -9.37, -9.02, -8.94, -8.65, -8.29, -8.37, -8.0, -8.0, -7.8, -7.51, -7.23, -7.55, -6.95, -6.95, -6.92, -6.92, -6.87, -6.28, -6.23, -5.93, -5.59, -5.49, -5.21, -4.65, -4.0, -3.88, -3.6, -2.91, -1.2, 0.0, 0.0, 0.0, 0.0, 0.0, 0.89, 0.95, 1.26, 1.26, 1.26, 1.2, 1.34, 1.58, 1.26, 0.0, 0.0, -1.79, -1.79, -1.79, 0.0, 1.58, 0.0, 0.0, 0.0, 0.0, 0.0, 0.0, 0.0, 1.2, 1.58, 1.74, 3.83, 4.15, 3.13, 1.26, 0.0, -1.79, -0.0, -0.0, -0.0, -2.24, -3.13, -3.13, -3.13, -8.96, -8.96, -8.96, -9.1, -8.93, -8.93, -8.65, -8.65, -9.01, -8.73, -8.73, -9.02, -9.37, -9.37, -9.94, -10.7, -11.5, -11.5, -11.34, -10.96, -10.51, -10.51, -10.59, -10.01, -9.66, -9.37, -9.02, -8.73, -8.65, -8.65, -8.08, -8.0, -8.0, -7.8, -7.51, -7.23, -7.55, -6.95, -6.95, -6.92, -6.92, -6.87, -6.87, -6.79, -6.23, -6.15, -5.86, -5.49, -5.21, -4.55, -4.0, -3.72, -3.07, -1.26, -0.95, 0.0, 0.0, 0.0, 0.0, 0.0, 0.89, 0.95, 1.26, 1.26, 1.2, 1.34, 2.24, 1.58, 1.0, 0.0, 0.0, 0.0, -1.34, 0.0, 0.0, 0.0, 0.0, 0.0, 0.0, 0.0, 0.0, 0.0, 0.0, -0.0, 0.99, 3.58, 4.15, 3.47, 2.24, 0.0, -1.34, -0.0, -0.0, -0.0, -2.4, -2.97, -2.97, -2.97, -8.96, -8.96, -9.35, -9.1, -9.1, -9.1, -8.65, -8.65, -9.01, -8.73, -8.94, -9.3, -9.02, -9.37, -10.15, -10.96, -11.5, -11.5, -11.34, -10.51, -10.51, -10.51, -10.23, -10.01, -10.01, -9.42, -9.02, -8.45, -8.38, -8.65, -8.08, -7.73, -7.73, -7.51, -7.51, -7.23, -7.55, -6.95, -6.95, -7.51, -7.17, -7.44, -6.87, -6.87, -6.79, -6.23, -6.15, -5.86, -5.49, -5.21, -4.55, -4.0, -2.5, -1.58, -1.26, -0.6, -0.95, -0.63, 0.0, 0.0, 0.0, 0.63, 0.95, 0.95, 1.2, 1.34, 1.34, 1.26, 0.99, 0.0, 1.2, 1.26, 0.0, 0.0, 0.0, 0.0, 0.0, -1.9, -1.9, -1.58, 0.0, 0.0, 1.79, -0.0, -0.0, 2.41, 4.22, 4.15, 3.13, 1.79, -0.0, -0.0, -0.0, -0.0, -2.4, -2.8, -2.8, -2.8, -8.96, -8.96, -9.35, -9.35, -9.1, -9.1, -9.1, -8.65, -9.01, -9.21, -8.94, -9.3, -9.3, -9.86, -10.41, -10.96, -11.5, -11.5, -11.07, -10.51, -10.51, -10.51, -10.51, -9.66, -9.66, -9.08, -8.78, -8.19, -8.15, -7.81, -7.81, -7.85, -7.51, -7.51, -7.51, -7.55, -7.55, -7.55, -7.23, -7.51, -7.17, -7.44, -7.09, -6.87, -6.79, -6.57, -6.51, -6.15, -5.86, -5.29, -4.65, -4.37, -2.79, -1.61, -1.24, -0.99, -0.8, -0.95, -0.63, 0.0, 0.0, 0.89, 0.95, 0.6, 1.2, 1.34, 1.79, 1.26, 1.4, 0.0, 0.0, 1.58, 1.79, 0.0, 0.0, -1.58, -1.2, -2.21, -2.8, -2.4, -1.58, 0.0, 2.0, -0.0, -0.0, 1.74, 3.58, 4.4, 3.6, 1.74, -0.0, -0.0, -0.0, -1.58, -2.4, -2.6, -2.6, -2.6, -9.2, -9.2, -9.35, -9.48, -9.63, -9.1, -9.1, -9.1, -9.21, -9.21, -9.21, -9.3, -9.3, -9.86, -10.23, -10.79, -10.96, -10.96, -10.7, -10.51, -10.51, -10.15, -9.94, -9.42, -9.42, -8.82, -8.22, -7.86, -7.59, -7.59, -7.55, -7.55, -7.23, -7.23, -7.23, -7.55, -7.27, -7.55, -7.55, -7.23, -7.51, -7.44, -7.44, -6.87, -6.79, -6.79, -6.23, -6.51, -5.93, -5.86, -4.94, -4.65, -2.84, -2.53, -1.61, -1.24, -1.58, -1.26, -0.95, 0.0, 0.0, 0.0, 0.63, 0.6, 1.26, 1.34, 1.79, 1.26, 0.71, 0.0, 0.0, 0.0, 0.0, 0.0, 0.0, -1.0, -1.4, -1.98, -2.21, -2.68, -2.68, 1.79, 3.39, 2.23, -0.0, -0.0, 1.74, 3.16, 3.16, 1.6, -0.0, -0.76, -0.0, -1.58, -2.21, -2.98, -2.98, -2.98, -8.68, -8.68, -9.2, -9.48, -9.88, -9.48, -9.1, -9.1, -9.21, -9.21, -9.21, -9.58, -9.86, -9.86, -10.23, -10.41, -10.41, -10.79, -10.79, -10.41, -10.41, -10.41, -9.94, -9.42, -9.08, -8.82, -8.5, -8.19, -8.19, -7.86, -7.59, -7.27, -7.55, -7.55, -7.27, -7.27, -7.27, -7.27, -7.55, -7.55, -7.51, -7.17, -7.44, -6.87, -6.79, -6.79, -6.23, -6.23, -5.93, -5.59, -5.29, -4.07, -3.16, -2.51, -2.21, -1.61, -1.58, -1.58, -1.2, -0.63, 0.0, 0.0, 0.63, 0.6, 1.26, 1.2, 1.34, 1.6, 0.8, 0.0, 0.0, 0.0, 0.0, 0.0, -1.26, -1.58, -1.2, -1.13, -2.21, -2.4, -1.79, 1.79, 3.39, 2.84, 1.13, -0.0, -0.0, 2.3, 3.07, 2.41, -0.0, -0.0, -0.85, -1.9, -2.21, -2.97, -2.97, -2.97, -8.68, -8.68, -9.2, -9.35, -9.48, -9.63, -9.48, -9.48, -9.48, -9.21, -9.76, -9.76, -9.86, -9.86, -10.23, -10.23, -10.23, -10.23, -10.41, -10.41, -10.41, -10.41, -9.94, -9.94, -9.37, -9.37, -8.78, -8.78, -8.45, -8.19, -7.86, -7.59, -7.55, -7.55, -7.27, -7.59, -7.3, -7.59, -7.27, -7.55, -7.51, -7.51, -7.44, -6.87, -6.79, -6.79, -6.23, -6.23, -5.65, -5.59, -5.01, -4.11, -3.48, -2.84, -2.23, -2.21, -1.9, -1.86, -1.26, -1.2, -0.89, 0.0, -0.0, 0.6, 0.8, 0.6, 0.89, 0.95, 0.8, 0.0, 0.0, 0.0, 0.0, 0.0, 0.0, -1.79, -2.0, -1.9, -0.99, -1.9, -1.58, 0.0, 2.24, 2.98, 2.23, -0.0, -0.0, 1.49, 3.07, 2.68, 1.74, -0.0, -0.99, -2.21, -2.6, -2.97, -2.97, -2.97, -8.8, -8.8, -9.2, -8.96, -9.35, -9.63, -9.48, -9.48, -9.48, -9.38, -9.76, -9.76, -9.86, -9.86, -10.23, -9.86, -9.86, -9.86, -10.3, -10.68, -10.41, -10.41, -9.94, -9.94, -9.37, -9.02, -9.3, -9.08, -8.73, -8.73, -8.15, -8.15, -7.55, -7.55, -7.55, -7.59, -7.3, -7.3, -7.59, -7.27, -7.23, -7.17, -7.44, -6.87, -6.79, -6.79, -6.23, -6.23, -5.65, -5.59, -5.35, -4.11, -3.79, -3.43, -2.84, -2.79, -2.5, -2.15, -1.86, -1.6, -0.63, 0.0, 0.0, -0.0, 0.8, 0.6, 0.89, 0.89, 0.0, 0.57, 0.71, 0.99, 1.2, 1.2, 0.0, 0.0, -1.79, -2.24, -1.0, -1.2, -1.2, 0.0, 0.0, 1.9, 1.13, -0.0, -0.0, 0.87, 2.53, 2.3, 1.6, -0.0, -0.76, -1.98, -2.21, -2.4, -2.4, -2.4, -9.2, -9.2, -9.2, -8.96, -9.35, -9.48, -9.63, -9.63, -9.63, -10.02, -9.76, -9.76, -10.13, -10.41, -10.41, -9.86, -9.86, -9.76, -10.3, -10.83, -10.96, -10.41, -10.23, -10.23, -9.86, -9.3, -9.3, -8.73, -8.73, -8.38, -8.15, -8.15, -7.81, -7.55, -7.55, -7.59, -7.59, -7.3, -7.59, -7.27, -6.95, -6.92, -6.92, -6.87, -6.87, -6.79, -6.23, -6.23, -5.93, -5.59, -5.01, -4.37, -4.07, -3.48, -3.43, -3.14, -2.79, -2.5, -2.23, -1.49, -1.2, -0.63, 0.0, -0.0, -0.0, -0.0, -0.0, 0.0, 0.0, 0.0, 0.0, 1.4, 1.2, 0.0, 0.0, 0.0, 0.0, -2.24, -1.58, -2.21, -1.9, -1.9, 0.0, -0.0, -0.0, -0.0, -0.0, -0.0, 0.79, 1.49, 0.79, -0.0, -0.0, -0.99, -1.9, -2.24, -2.24, -2.24, -9.2, -9.2, -9.2, -8.96, -9.35, -9.48, -9.63, -9.63, -10.02, -10.02, -9.76, -10.13, -10.3, -10.04, -10.41, -10.23, -9.86, -10.13, -10.68, -10.96, -10.96, -10.41, -10.41, -10.23, -9.86, -9.3, -9.3, -8.73, -8.73, -8.38, -8.15, -7.81, -7.81, -7.81, -7.55, -7.59, -7.59, -7.59, -7.59, -7.27, -6.95, -6.92, -6.92, -6.59, -6.62, -6.57, -6.23, -6.51, -5.93, -5.59, -4.94, -4.71, -4.41, -3.73, -3.43, -3.35, -2.79, -2.68, -2.15, -1.86, -1.26, -0.95, -0.45, -0.0, -0.0, -0.0, -0.0, 0.0, 0.0, 0.0, 0.0, 0.0, 0.0, 0.0, 0.0, 0.0, 0.0, -2.24, -2.4, -2.97, -2.98, -2.21, -1.58, 0.0, -0.0, -0.0, -0.0, -0.0, -0.0, -0.0, -0.0, -0.0, -0.79, -0.99, -2.0, -2.68, -2.68, -2.68, -9.2, -9.2, -9.2, -8.96, -9.35, -9.48, -9.63, -9.63, -10.02, -10.02, -9.76, -10.13, -10.3, -10.04, -10.41, -10.23, -9.86, -10.13, -10.68, -10.96, -10.96, -10.41, -10.41, -10.23, -9.86, -9.3, -9.3, -8.73, -8.73, -8.38, -8.15, -7.81, -7.81, -7.81, -7.55, -7.59, -7.59, -7.59, -7.59, -7.27, -6.95, -6.92, -6.92, -6.59, -6.62, -6.57, -6.23, -6.51, -5.93, -5.59, -4.94, -4.71, -4.41, -3.73, -3.43, -3.35, -2.79, -2.68, -2.15, -1.86, -1.26, -0.95, -0.45, -0.0, -0.0, -0.0, -0.0, 0.0, 0.0, 0.0, 0.0, 0.0, 0.0, 0.0, 0.0, 0.0, -1.79, -2.24, -2.4, -2.97, -2.98, -2.98, -2.21, 0.0, 0.0, -0.0, -0.0, -0.0, -0.0, -0.0, -0.0, -1.08, -1.08, -1.13, -2.4, -2.68, -2.68, -2.68]}]